Time,TemperatureF,DewpointF,PressureIn,WindDirection,WindDirectionDegrees,WindSpeedMPH,WindSpeedGustMPH,Humidity,HourlyPrecipIn,Conditions,Clouds,dailyrainin,SoftwareType,DateUTC
2014-08-28 00:00:00,70.0,45.9,30.19,South,182,0.9,2.0,42,-99.99,,,-99.99,meteobridge,2014-08-28 07:00:00,
2014-08-28 00:01:00,70.0,45.9,30.19,South,185,0.0,2.0,42,-99.99,,,-99.99,meteobridge,2014-08-28 07:01:00,
2014-08-28 00:02:00,70.0,45.9,30.19,South,186,0.0,2.0,42,-99.99,,,-99.99,meteobridge,2014-08-28 07:02:00,
2014-08-28 00:03:00,69.8,45.7,30.19,North,0,0.0,2.0,42,-99.99,,,-99.99,meteobridge,2014-08-28 07:03:00,
2014-08-28 00:04:00,70.0,45.9,30.19,NW,305,0.9,2.0,42,-99.99,,,-99.99,meteobridge,2014-08-28 07:04:00,
2014-08-28 00:06:00,69.8,45.7,30.19,WNW,298,0.0,0.9,42,-99.99,,,-99.99,meteobridge,2014-08-28 07:06:00,
2014-08-28 00:07:00,69.6,45.5,30.19,South,191,0.0,0.0,42,-99.99,,,-99.99,meteobridge,2014-08-28 07:07:00,
2014-08-28 00:08:00,69.6,45.5,30.19,SSW,192,0.0,0.0,42,-99.99,,,-99.99,meteobridge,2014-08-28 07:08:00,
2014-08-28 00:10:00,69.8,46.2,30.19,SSW,198,0.0,0.0,43,-99.99,,,-99.99,meteobridge,2014-08-28 07:10:00,
2014-08-28 00:11:00,69.4,46.0,30.19,SSW,198,0.0,0.0,43,-99.99,,,-99.99,meteobridge,2014-08-28 07:11:00,
2014-08-28 00:12:00,69.4,46.0,30.19,West,267,0.0,0.0,43,-99.99,,,-99.99,meteobridge,2014-08-28 07:12:00,
2014-08-28 00:14:00,69.3,45.9,30.19,SE,136,0.0,0.9,43,-99.99,,,-99.99,meteobridge,2014-08-28 07:14:00,
2014-08-28 00:16:00,69.4,46.0,30.19,SE,134,0.0,0.0,43,-99.99,,,-99.99,meteobridge,2014-08-28 07:16:00,
2014-08-28 00:17:00,69.3,45.9,30.19,SE,133,0.0,0.0,43,-99.99,,,-99.99,meteobridge,2014-08-28 07:17:00,
2014-08-28 00:20:00,69.1,45.7,30.19,SSE,152,4.0,4.9,43,-99.99,,,-99.99,meteobridge,2014-08-28 07:20:00,
2014-08-28 00:21:00,69.1,45.7,30.19,ENE,59,4.0,4.9,43,-99.99,,,-99.99,meteobridge,2014-08-28 07:21:00,
2014-08-28 00:23:00,69.1,45.7,30.19,ENE,59,2.9,2.9,43,-99.99,,,-99.99,meteobridge,2014-08-28 07:23:00,
2014-08-28 00:24:00,68.7,45.3,30.19,ENE,59,0.0,2.9,43,-99.99,,,-99.99,meteobridge,2014-08-28 07:24:00,
2014-08-28 00:25:00,68.9,45.5,30.19,ENE,59,2.9,2.9,43,-99.99,,,-99.99,meteobridge,2014-08-28 07:25:00,
2014-08-28 00:27:00,68.9,45.5,30.19,ENE,59,0.9,2.0,43,-99.99,,,-99.99,meteobridge,2014-08-28 07:27:00,
2014-08-28 00:28:00,68.9,45.5,30.19,ENE,59,0.0,2.0,43,-99.99,,,-99.99,meteobridge,2014-08-28 07:28:00,
2014-08-28 00:29:00,68.9,44.8,30.19,ENE,59,2.0,2.0,42,-99.99,,,-99.99,meteobridge,2014-08-28 07:29:00,
2014-08-28 00:31:00,68.9,44.8,30.19,ENE,59,2.0,2.9,42,-99.99,,,-99.99,meteobridge,2014-08-28 07:31:00,
2014-08-28 00:33:00,68.7,44.8,30.19,NW,319,0.9,2.9,42,-99.99,,,-99.99,meteobridge,2014-08-28 07:33:00,
2014-08-28 00:34:00,68.5,44.6,30.19,NW,323,0.0,2.9,42,-99.99,,,-99.99,meteobridge,2014-08-28 07:34:00,
2014-08-28 00:37:00,68.7,44.1,30.19,NW,306,2.0,2.9,41,-99.99,,,-99.99,meteobridge,2014-08-28 07:37:00,
2014-08-28 00:38:00,68.5,43.9,30.19,West,277,0.9,2.9,41,-99.99,,,-99.99,meteobridge,2014-08-28 07:38:00,
2014-08-28 00:39:00,68.7,43.3,30.19,West,278,0.9,2.0,40,-99.99,,,-99.99,meteobridge,2014-08-28 07:39:00,
2014-08-28 00:43:00,68.5,43.3,30.19,WSW,253,2.0,2.9,40,-99.99,,,-99.99,meteobridge,2014-08-28 07:43:00,
2014-08-28 00:44:00,68.7,44.1,30.19,SSW,192,0.9,2.9,41,-99.99,,,-99.99,meteobridge,2014-08-28 07:44:00,
2014-08-28 00:45:00,68.7,44.8,30.19,SE,140,0.9,2.0,42,-99.99,,,-99.99,meteobridge,2014-08-28 07:45:00,
2014-08-28 00:48:00,68.7,44.8,30.19,SE,138,0.9,2.9,42,-99.99,,,-99.99,meteobridge,2014-08-28 07:48:00,
2014-08-28 00:49:00,68.7,45.3,30.19,South,174,2.9,2.9,43,-99.99,,,-99.99,meteobridge,2014-08-28 07:49:00,
2014-08-28 00:50:00,68.5,45.1,30.19,SW,220,0.9,2.9,43,-99.99,,,-99.99,meteobridge,2014-08-28 07:50:00,
2014-08-28 00:51:00,68.7,45.3,30.19,SSW,208,0.0,2.9,43,-99.99,,,-99.99,meteobridge,2014-08-28 07:51:00,
2014-08-28 00:53:00,68.5,45.7,30.19,SSW,198,0.9,2.9,44,-99.99,,,-99.99,meteobridge,2014-08-28 07:53:00,
2014-08-28 00:54:00,68.5,45.7,30.19,SW,222,0.9,2.0,44,-99.99,,,-99.99,meteobridge,2014-08-28 07:54:00,
2014-08-28 00:55:00,68.5,46.4,30.19,East,88,2.9,2.9,45,-99.99,,,-99.99,meteobridge,2014-08-28 07:55:00,
2014-08-28 00:56:00,68.5,46.4,30.19,NNW,344,2.0,2.9,45,-99.99,,,-99.99,meteobridge,2014-08-28 07:56:00,
2014-08-28 00:59:00,68.4,46.2,30.19,WSW,258,0.0,2.0,45,-99.99,,,-99.99,meteobridge,2014-08-28 07:59:00,
2014-08-28 01:00:00,68.4,46.2,30.19,SW,230,0.0,2.0,45,-99.99,,,-99.99,meteobridge,2014-08-28 08:00:00,
2014-08-28 01:01:00,68.4,46.2,30.19,West,271,0.0,2.0,45,-99.99,,,-99.99,meteobridge,2014-08-28 08:01:00,
2014-08-28 01:02:00,68.4,46.2,30.19,West,263,0.0,0.9,45,-99.99,,,-99.99,meteobridge,2014-08-28 08:02:00,
2014-08-28 01:04:00,68.2,45.5,30.19,SSW,213,0.0,2.0,44,-99.99,,,-99.99,meteobridge,2014-08-28 08:04:00,
2014-08-28 01:05:00,68.2,45.5,30.19,WNW,296,0.0,2.0,44,-99.99,,,-99.99,meteobridge,2014-08-28 08:05:00,
2014-08-28 01:07:00,68.2,45.5,30.19,SW,230,0.0,0.0,44,-99.99,,,-99.99,meteobridge,2014-08-28 08:07:00,
2014-08-28 01:08:00,68.2,45.5,30.19,SW,233,0.9,0.9,44,-99.99,,,-99.99,meteobridge,2014-08-28 08:08:00,
2014-08-28 01:09:00,68.0,45.9,30.19,SW,230,0.0,2.0,45,-99.99,,,-99.99,meteobridge,2014-08-28 08:09:00,
2014-08-28 01:10:00,68.0,45.9,30.19,WSW,240,0.0,0.9,45,-99.99,,,-99.99,meteobridge,2014-08-28 08:10:00,
2014-08-28 01:11:00,68.0,45.9,30.19,WSW,241,0.0,0.0,45,-99.99,,,-99.99,meteobridge,2014-08-28 08:11:00,
2014-08-28 01:12:00,68.2,46.0,30.19,WSW,240,0.0,0.0,45,-99.99,,,-99.99,meteobridge,2014-08-28 08:12:00,
2014-08-28 01:15:00,67.8,45.7,30.19,South,174,0.0,0.0,45,-99.99,,,-99.99,meteobridge,2014-08-28 08:15:00,
2014-08-28 01:16:00,67.8,46.2,30.19,SE,140,0.0,0.0,46,-99.99,,,-99.99,meteobridge,2014-08-28 08:16:00,
2014-08-28 01:17:00,67.8,45.7,30.19,SE,137,0.0,0.0,45,-99.99,,,-99.99,meteobridge,2014-08-28 08:17:00,
2014-08-28 01:19:00,67.6,45.5,30.19,SSW,195,0.0,0.0,45,-99.99,,,-99.99,meteobridge,2014-08-28 08:19:00,
2014-08-28 01:20:00,67.6,45.5,30.19,WSW,248,0.0,0.0,45,-99.99,,,-99.99,meteobridge,2014-08-28 08:20:00,
2014-08-28 01:22:00,67.5,45.3,30.20,SW,230,0.0,0.0,45,-99.99,,,-99.99,meteobridge,2014-08-28 08:22:00,
2014-08-28 01:23:00,67.5,45.3,30.20,SW,220,0.9,0.9,45,-99.99,,,-99.99,meteobridge,2014-08-28 08:23:00,
2014-08-28 01:24:00,67.5,45.3,30.20,WSW,237,0.0,2.0,45,-99.99,,,-99.99,meteobridge,2014-08-28 08:24:00,
2014-08-28 01:25:00,67.6,45.5,30.20,SW,233,0.0,2.0,45,-99.99,,,-99.99,meteobridge,2014-08-28 08:25:00,
2014-08-28 01:27:00,67.5,45.3,30.20,South,176,0.9,2.0,45,-99.99,,,-99.99,meteobridge,2014-08-28 08:27:00,
2014-08-28 01:28:00,67.5,45.3,30.20,SSW,192,0.0,2.0,45,-99.99,,,-99.99,meteobridge,2014-08-28 08:28:00,
2014-08-28 01:29:00,67.3,45.9,30.20,SW,232,0.9,0.9,46,-99.99,,,-99.99,meteobridge,2014-08-28 08:29:00,
2014-08-28 01:30:00,67.5,46.0,30.20,SSE,164,0.0,0.9,46,-99.99,,,-99.99,meteobridge,2014-08-28 08:30:00,
2014-08-28 01:32:00,67.5,45.3,30.20,SW,234,0.0,2.0,45,-99.99,,,-99.99,meteobridge,2014-08-28 08:32:00,
2014-08-28 01:33:00,67.5,46.0,30.20,SSE,168,0.9,2.0,46,-99.99,,,-99.99,meteobridge,2014-08-28 08:33:00,
2014-08-28 01:35:00,67.3,45.1,30.20,SW,215,0.9,2.0,45,-99.99,,,-99.99,meteobridge,2014-08-28 08:35:00,
2014-08-28 01:38:00,67.3,45.9,30.20,SSE,152,0.0,0.0,46,-99.99,,,-99.99,meteobridge,2014-08-28 08:38:00,
2014-08-28 01:39:00,67.3,46.4,30.20,SSE,151,0.9,0.9,47,-99.99,,,-99.99,meteobridge,2014-08-28 08:39:00,
2014-08-28 01:40:00,67.3,45.9,30.20,SSW,205,0.9,2.0,46,-99.99,,,-99.99,meteobridge,2014-08-28 08:40:00,
2014-08-28 01:41:00,67.3,46.4,30.20,SSE,164,0.9,2.0,47,-99.99,,,-99.99,meteobridge,2014-08-28 08:41:00,
2014-08-28 01:44:00,67.1,46.2,30.20,ESE,107,0.0,2.0,47,-99.99,,,-99.99,meteobridge,2014-08-28 08:44:00,
2014-08-28 01:45:00,67.1,46.2,30.20,WSW,248,0.0,0.9,47,-99.99,,,-99.99,meteobridge,2014-08-28 08:45:00,
2014-08-28 01:46:00,66.9,46.0,30.20,WSW,246,0.9,0.9,47,-99.99,,,-99.99,meteobridge,2014-08-28 08:46:00,
2014-08-28 01:47:00,66.9,46.0,30.20,SE,145,0.0,2.0,47,-99.99,,,-99.99,meteobridge,2014-08-28 08:47:00,
2014-08-28 01:50:00,66.7,45.9,30.20,SSE,151,0.0,2.9,47,-99.99,,,-99.99,meteobridge,2014-08-28 08:50:00,
2014-08-28 01:51:00,66.7,45.9,30.20,WNW,289,0.0,0.9,47,-99.99,,,-99.99,meteobridge,2014-08-28 08:51:00,
2014-08-28 01:52:00,66.9,46.0,30.20,NW,308,0.0,0.9,47,-99.99,,,-99.99,meteobridge,2014-08-28 08:52:00,
2014-08-28 01:53:00,66.9,46.0,30.19,WSW,243,0.0,2.0,47,-99.99,,,-99.99,meteobridge,2014-08-28 08:53:00,
2014-08-28 01:55:00,66.7,46.4,30.19,SW,217,0.9,2.9,48,-99.99,,,-99.99,meteobridge,2014-08-28 08:55:00,
2014-08-28 01:56:00,66.7,46.4,30.19,WNW,298,0.9,2.9,48,-99.99,,,-99.99,meteobridge,2014-08-28 08:56:00,
2014-08-28 01:57:00,66.7,46.4,30.19,South,176,2.0,2.0,48,-99.99,,,-99.99,meteobridge,2014-08-28 08:57:00,
2014-08-28 01:59:00,66.7,45.9,30.19,SSE,151,0.0,2.0,47,-99.99,,,-99.99,meteobridge,2014-08-28 08:59:00,
2014-08-28 02:00:00,66.6,46.2,30.19,SW,232,0.0,2.0,48,-99.99,,,-99.99,meteobridge,2014-08-28 09:00:00,
2014-08-28 02:01:00,66.6,46.2,30.19,SSW,212,0.9,2.0,48,-99.99,,,-99.99,meteobridge,2014-08-28 09:01:00,
2014-08-28 02:02:00,66.6,45.7,30.19,North,0,2.0,2.0,47,-99.99,,,-99.99,meteobridge,2014-08-28 09:02:00,
2014-08-28 02:03:00,66.6,45.7,30.19,North,0,4.9,4.9,47,-99.99,,,-99.99,meteobridge,2014-08-28 09:03:00,
2014-08-28 02:05:00,66.6,46.2,30.19,WSW,258,2.0,2.9,48,-99.99,,,-99.99,meteobridge,2014-08-28 09:05:00,
2014-08-28 02:06:00,66.6,46.2,30.19,West,265,2.0,4.9,48,-99.99,,,-99.99,meteobridge,2014-08-28 09:06:00,
2014-08-28 02:07:00,66.6,45.7,30.19,NW,318,4.9,4.9,47,-99.99,,,-99.99,meteobridge,2014-08-28 09:07:00,
2014-08-28 02:08:00,66.6,46.2,30.19,WSW,244,2.0,4.9,48,-99.99,,,-99.99,meteobridge,2014-08-28 09:08:00,
2014-08-28 02:09:00,66.4,46.0,30.19,NW,316,0.9,4.9,48,-99.99,,,-99.99,meteobridge,2014-08-28 09:09:00,
2014-08-28 02:11:00,66.4,46.0,30.19,North,357,4.9,4.9,48,-99.99,,,-99.99,meteobridge,2014-08-28 09:11:00,
2014-08-28 02:13:00,66.4,46.0,30.19,SW,222,0.0,4.9,48,-99.99,,,-99.99,meteobridge,2014-08-28 09:13:00,
2014-08-28 02:14:00,66.4,46.0,30.19,South,179,0.9,2.0,48,-99.99,,,-99.99,meteobridge,2014-08-28 09:14:00,
2014-08-28 02:15:00,66.2,45.9,30.19,SSE,162,0.9,2.0,48,-99.99,,,-99.99,meteobridge,2014-08-28 09:15:00,
2014-08-28 02:16:00,66.2,45.9,30.19,West,272,0.0,2.0,48,-99.99,,,-99.99,meteobridge,2014-08-28 09:16:00,
2014-08-28 02:18:00,66.2,45.9,30.19,West,271,0.0,0.9,48,-99.99,,,-99.99,meteobridge,2014-08-28 09:18:00,
2014-08-28 02:19:00,66.2,45.3,30.19,South,174,0.0,0.0,47,-99.99,,,-99.99,meteobridge,2014-08-28 09:19:00,
2014-08-28 02:21:00,66.0,45.7,30.19,North,359,0.0,0.0,48,-99.99,,,-99.99,meteobridge,2014-08-28 09:21:00,
2014-08-28 02:22:00,66.0,45.7,30.19,WSW,254,0.0,0.0,48,-99.99,,,-99.99,meteobridge,2014-08-28 09:22:00,
2014-08-28 02:23:00,66.0,45.7,30.20,West,277,0.0,0.0,48,-99.99,,,-99.99,meteobridge,2014-08-28 09:23:00,
2014-08-28 02:24:00,66.0,45.7,30.20,WSW,248,0.0,0.0,48,-99.99,,,-99.99,meteobridge,2014-08-28 09:24:00,
2014-08-28 02:25:00,66.0,45.7,30.20,WSW,253,0.0,0.0,48,-99.99,,,-99.99,meteobridge,2014-08-28 09:25:00,
2014-08-28 02:27:00,65.8,45.7,30.20,North,0,0.9,2.9,48,-99.99,,,-99.99,meteobridge,2014-08-28 09:27:00,
2014-08-28 02:28:00,65.8,46.2,30.20,SE,131,2.9,4.0,49,-99.99,,,-99.99,meteobridge,2014-08-28 09:28:00,
2014-08-28 02:29:00,65.8,45.7,30.20,ESE,103,0.0,4.0,48,-99.99,,,-99.99,meteobridge,2014-08-28 09:29:00,
2014-08-28 02:31:00,65.8,45.7,30.20,East,100,0.0,0.9,48,-99.99,,,-99.99,meteobridge,2014-08-28 09:31:00,
2014-08-28 02:32:00,65.8,45.7,30.20,ESE,103,0.0,2.9,48,-99.99,,,-99.99,meteobridge,2014-08-28 09:32:00,
2014-08-28 02:34:00,65.8,46.2,30.20,SE,127,0.0,2.0,49,-99.99,,,-99.99,meteobridge,2014-08-28 09:34:00,
2014-08-28 02:36:00,65.8,46.2,30.20,ESE,113,0.0,0.0,49,-99.99,,,-99.99,meteobridge,2014-08-28 09:36:00,
2014-08-28 02:37:00,65.7,46.0,30.20,ESE,110,0.0,0.0,49,-99.99,,,-99.99,meteobridge,2014-08-28 09:37:00,
2014-08-28 02:38:00,65.7,46.0,30.20,ESE,110,0.0,0.0,49,-99.99,,,-99.99,meteobridge,2014-08-28 09:38:00,
2014-08-28 02:39:00,65.7,46.0,30.20,East,89,0.0,2.0,49,-99.99,,,-99.99,meteobridge,2014-08-28 09:39:00,
2014-08-28 02:40:00,65.7,46.6,30.20,East,89,0.0,2.0,50,-99.99,,,-99.99,meteobridge,2014-08-28 09:40:00,
2014-08-28 02:41:00,65.7,46.0,30.20,East,89,0.0,0.0,49,-99.99,,,-99.99,meteobridge,2014-08-28 09:41:00,
2014-08-28 02:43:00,65.5,45.9,30.20,East,89,0.0,0.0,49,-99.99,,,-99.99,meteobridge,2014-08-28 09:43:00,
2014-08-28 02:44:00,65.5,45.9,30.20,East,89,0.0,0.0,49,-99.99,,,-99.99,meteobridge,2014-08-28 09:44:00,
2014-08-28 02:45:00,65.5,45.9,30.20,East,99,2.0,2.0,49,-99.99,,,-99.99,meteobridge,2014-08-28 09:45:00,
2014-08-28 02:47:00,65.3,46.2,30.20,South,185,2.0,2.0,50,-99.99,,,-99.99,meteobridge,2014-08-28 09:47:00,
2014-08-28 02:49:00,65.1,45.0,30.20,WNW,294,0.0,2.0,48,-99.99,,,-99.99,meteobridge,2014-08-28 09:49:00,
2014-08-28 02:50:00,65.3,45.1,30.20,West,275,2.0,2.0,48,-99.99,,,-99.99,meteobridge,2014-08-28 09:50:00,
2014-08-28 02:52:00,65.3,45.7,30.21,South,188,0.0,2.9,49,-99.99,,,-99.99,meteobridge,2014-08-28 09:52:00,
2014-08-28 02:54:00,65.1,45.0,30.21,North,357,2.9,2.9,48,-99.99,,,-99.99,meteobridge,2014-08-28 09:54:00,
2014-08-28 02:55:00,65.1,45.0,30.21,SW,223,0.0,2.9,48,-99.99,,,-99.99,meteobridge,2014-08-28 09:55:00,
2014-08-28 02:56:00,64.9,44.8,30.21,WSW,254,2.0,2.9,48,-99.99,,,-99.99,meteobridge,2014-08-28 09:56:00,
2014-08-28 02:57:00,64.9,44.8,30.21,North,0,2.0,2.9,48,-99.99,,,-99.99,meteobridge,2014-08-28 09:57:00,
2014-08-28 02:58:00,64.9,45.3,30.21,North,349,2.0,2.9,49,-99.99,,,-99.99,meteobridge,2014-08-28 09:58:00,
2014-08-28 02:59:00,65.1,45.0,30.21,NNW,328,0.0,2.0,48,-99.99,,,-99.99,meteobridge,2014-08-28 09:59:00,
2014-08-28 03:00:00,65.1,45.5,30.21,NW,323,0.0,2.0,49,-99.99,,,-99.99,meteobridge,2014-08-28 10:00:00,
2014-08-28 03:01:00,65.1,45.5,30.21,NW,323,0.0,2.0,49,-99.99,,,-99.99,meteobridge,2014-08-28 10:01:00,
2014-08-28 03:03:00,65.1,45.5,30.21,NW,312,0.0,0.9,49,-99.99,,,-99.99,meteobridge,2014-08-28 10:03:00,
2014-08-28 03:05:00,64.9,45.3,30.21,North,0,0.0,2.0,49,-99.99,,,-99.99,meteobridge,2014-08-28 10:05:00,
2014-08-28 03:06:00,64.9,45.3,30.21,North,0,0.0,0.0,49,-99.99,,,-99.99,meteobridge,2014-08-28 10:06:00,
2014-08-28 03:08:00,64.9,45.9,30.21,North,0,0.0,0.0,50,-99.99,,,-99.99,meteobridge,2014-08-28 10:08:00,
2014-08-28 03:10:00,64.9,45.3,30.21,North,0,2.9,2.9,49,-99.99,,,-99.99,meteobridge,2014-08-28 10:10:00,
2014-08-28 03:11:00,64.9,45.9,30.21,North,359,0.0,2.9,50,-99.99,,,-99.99,meteobridge,2014-08-28 10:11:00,
2014-08-28 03:13:00,64.9,45.3,30.21,WNW,292,0.0,0.0,49,-99.99,,,-99.99,meteobridge,2014-08-28 10:13:00,
2014-08-28 03:15:00,64.9,45.3,30.21,West,281,0.0,0.0,49,-99.99,,,-99.99,meteobridge,2014-08-28 10:15:00,
2014-08-28 03:16:00,64.8,45.1,30.21,WNW,284,0.0,0.0,49,-99.99,,,-99.99,meteobridge,2014-08-28 10:16:00,
2014-08-28 03:18:00,64.8,45.7,30.21,SW,236,0.9,2.0,50,-99.99,,,-99.99,meteobridge,2014-08-28 10:18:00,
2014-08-28 03:20:00,64.8,45.7,30.21,South,178,0.9,2.0,50,-99.99,,,-99.99,meteobridge,2014-08-28 10:20:00,
2014-08-28 03:22:00,64.8,45.7,30.21,WSW,257,0.0,2.0,50,-99.99,,,-99.99,meteobridge,2014-08-28 10:22:00,
2014-08-28 03:23:00,64.8,45.7,30.21,SW,219,0.9,2.0,50,-99.99,,,-99.99,meteobridge,2014-08-28 10:23:00,
2014-08-28 03:25:00,64.8,45.1,30.21,SW,223,0.0,0.9,49,-99.99,,,-99.99,meteobridge,2014-08-28 10:25:00,
2014-08-28 03:26:00,64.8,45.1,30.21,SW,223,0.0,0.9,49,-99.99,,,-99.99,meteobridge,2014-08-28 10:26:00,
2014-08-28 03:28:00,64.8,45.7,30.21,SW,226,0.0,0.0,50,-99.99,,,-99.99,meteobridge,2014-08-28 10:28:00,
2014-08-28 03:29:00,64.6,45.5,30.21,SW,226,0.0,0.0,50,-99.99,,,-99.99,meteobridge,2014-08-28 10:29:00,
2014-08-28 03:31:00,64.6,46.0,30.21,SW,229,0.0,0.0,51,-99.99,,,-99.99,meteobridge,2014-08-28 10:31:00,
2014-08-28 03:32:00,64.6,46.0,30.21,WSW,241,0.0,0.0,51,-99.99,,,-99.99,meteobridge,2014-08-28 10:32:00,
2014-08-28 03:34:00,64.4,45.3,30.21,North,0,2.0,2.9,50,-99.99,,,-99.99,meteobridge,2014-08-28 10:34:00,
2014-08-28 03:36:00,64.4,45.3,30.21,North,0,0.0,2.0,50,-99.99,,,-99.99,meteobridge,2014-08-28 10:36:00,
2014-08-28 03:37:00,64.4,45.3,30.21,North,0,0.9,0.9,50,-99.99,,,-99.99,meteobridge,2014-08-28 10:37:00,
2014-08-28 03:38:00,64.4,45.9,30.22,West,281,0.0,2.0,51,-99.99,,,-99.99,meteobridge,2014-08-28 10:38:00,
2014-08-28 03:40:00,64.2,45.1,30.22,North,0,0.9,2.0,50,-99.99,,,-99.99,meteobridge,2014-08-28 10:40:00,
2014-08-28 03:43:00,64.2,45.7,30.22,North,0,0.0,0.0,51,-99.99,,,-99.99,meteobridge,2014-08-28 10:43:00,
2014-08-28 03:44:00,64.2,45.7,30.22,WNW,302,0.9,0.9,51,-99.99,,,-99.99,meteobridge,2014-08-28 10:44:00,
2014-08-28 03:45:00,64.2,45.7,30.22,North,0,0.9,2.0,51,-99.99,,,-99.99,meteobridge,2014-08-28 10:45:00,
2014-08-28 03:46:00,64.2,45.7,30.22,SW,216,0.9,2.0,51,-99.99,,,-99.99,meteobridge,2014-08-28 10:46:00,
2014-08-28 03:48:00,64.0,45.5,30.22,West,265,0.0,2.0,51,-99.99,,,-99.99,meteobridge,2014-08-28 10:48:00,
2014-08-28 03:49:00,64.2,45.7,30.22,WSW,237,0.0,0.9,51,-99.99,,,-99.99,meteobridge,2014-08-28 10:49:00,
2014-08-28 03:50:00,64.0,45.5,30.22,SSW,193,0.0,0.9,51,-99.99,,,-99.99,meteobridge,2014-08-28 10:50:00,
2014-08-28 03:51:00,64.0,45.5,30.22,SSW,192,0.0,0.0,51,-99.99,,,-99.99,meteobridge,2014-08-28 10:51:00,
2014-08-28 03:53:00,63.9,45.9,30.22,NW,326,0.9,2.9,52,-99.99,,,-99.99,meteobridge,2014-08-28 10:53:00,
2014-08-28 03:54:00,63.9,45.9,30.22,NW,311,0.0,2.0,52,-99.99,,,-99.99,meteobridge,2014-08-28 10:54:00,
2014-08-28 03:55:00,63.9,45.9,30.22,West,264,0.0,0.9,52,-99.99,,,-99.99,meteobridge,2014-08-28 10:55:00,
2014-08-28 03:56:00,64.0,46.0,30.22,WSW,256,0.9,0.9,52,-99.99,,,-99.99,meteobridge,2014-08-28 10:56:00,
2014-08-28 03:57:00,63.9,46.4,30.22,West,277,0.0,2.9,53,-99.99,,,-99.99,meteobridge,2014-08-28 10:57:00,
2014-08-28 03:58:00,63.9,45.9,30.22,WSW,239,0.0,0.9,52,-99.99,,,-99.99,meteobridge,2014-08-28 10:58:00,
2014-08-28 04:00:00,63.9,46.4,30.22,WNW,282,0.0,0.0,53,-99.99,,,-99.99,meteobridge,2014-08-28 11:00:00,
2014-08-28 04:01:00,63.9,46.4,30.22,SSW,208,0.0,0.9,53,-99.99,,,-99.99,meteobridge,2014-08-28 11:01:00,
2014-08-28 04:04:00,63.9,45.9,30.22,NW,313,0.0,2.0,52,-99.99,,,-99.99,meteobridge,2014-08-28 11:04:00,
2014-08-28 04:06:00,63.7,46.2,30.22,WSW,241,0.9,2.9,53,-99.99,,,-99.99,meteobridge,2014-08-28 11:06:00,
2014-08-28 04:08:00,63.7,46.2,30.22,West,270,0.0,2.0,53,-99.99,,,-99.99,meteobridge,2014-08-28 11:08:00,
2014-08-28 04:10:00,63.5,46.0,30.22,NNW,328,0.9,2.0,53,-99.99,,,-99.99,meteobridge,2014-08-28 11:10:00,
2014-08-28 04:11:00,63.3,45.9,30.22,North,0,0.9,2.0,53,-99.99,,,-99.99,meteobridge,2014-08-28 11:11:00,
2014-08-28 04:13:00,63.3,45.9,30.22,North,0,0.0,0.9,53,-99.99,,,-99.99,meteobridge,2014-08-28 11:13:00,
2014-08-28 04:14:00,63.5,46.0,30.22,West,278,0.0,2.9,53,-99.99,,,-99.99,meteobridge,2014-08-28 11:14:00,
2014-08-28 04:15:00,63.5,46.0,30.22,WNW,289,2.0,2.0,53,-99.99,,,-99.99,meteobridge,2014-08-28 11:15:00,
2014-08-28 04:16:00,63.5,46.0,30.22,WSW,258,0.0,2.0,53,-99.99,,,-99.99,meteobridge,2014-08-28 11:16:00,
2014-08-28 04:17:00,63.5,46.0,30.22,SW,232,0.0,2.0,53,-99.99,,,-99.99,meteobridge,2014-08-28 11:17:00,
2014-08-28 04:18:00,63.3,45.9,30.22,West,281,2.0,2.9,53,-99.99,,,-99.99,meteobridge,2014-08-28 11:18:00,
2014-08-28 04:19:00,63.3,45.9,30.22,SW,216,2.0,2.9,53,-99.99,,,-99.99,meteobridge,2014-08-28 11:19:00,
2014-08-28 04:21:00,63.3,45.9,30.22,NW,325,0.0,2.0,53,-99.99,,,-99.99,meteobridge,2014-08-28 11:21:00,
2014-08-28 04:23:00,63.3,45.9,30.23,South,184,0.0,0.0,53,-99.99,,,-99.99,meteobridge,2014-08-28 11:23:00,
2014-08-28 04:24:00,63.3,45.9,30.23,West,264,0.0,0.0,53,-99.99,,,-99.99,meteobridge,2014-08-28 11:24:00,
2014-08-28 04:25:00,63.3,45.9,30.23,SW,233,0.0,0.0,53,-99.99,,,-99.99,meteobridge,2014-08-28 11:25:00,
2014-08-28 04:26:00,63.1,45.7,30.23,West,274,0.0,0.0,53,-99.99,,,-99.99,meteobridge,2014-08-28 11:26:00,
2014-08-28 04:27:00,63.1,45.7,30.23,WSW,254,0.0,0.0,53,-99.99,,,-99.99,meteobridge,2014-08-28 11:27:00,
2014-08-28 04:29:00,63.1,46.2,30.23,WSW,257,0.0,0.0,54,-99.99,,,-99.99,meteobridge,2014-08-28 11:29:00,
2014-08-28 04:32:00,63.1,46.8,30.23,WSW,253,0.0,0.0,55,-99.99,,,-99.99,meteobridge,2014-08-28 11:32:00,
2014-08-28 04:34:00,63.0,46.9,30.23,SW,216,0.0,0.0,56,-99.99,,,-99.99,meteobridge,2014-08-28 11:34:00,
2014-08-28 04:35:00,62.8,46.9,30.23,WSW,258,0.0,0.0,56,-99.99,,,-99.99,meteobridge,2014-08-28 11:35:00,
2014-08-28 04:36:00,62.8,46.4,30.23,WSW,254,0.0,0.0,55,-99.99,,,-99.99,meteobridge,2014-08-28 11:36:00,
2014-08-28 04:37:00,63.0,46.9,30.24,WSW,239,0.0,0.0,56,-99.99,,,-99.99,meteobridge,2014-08-28 11:37:00,
2014-08-28 04:38:00,63.0,46.9,30.24,SW,233,0.0,0.0,56,-99.99,,,-99.99,meteobridge,2014-08-28 11:38:00,
2014-08-28 04:39:00,62.6,46.8,30.24,SSW,209,0.0,0.0,56,-99.99,,,-99.99,meteobridge,2014-08-28 11:39:00,
2014-08-28 04:40:00,62.8,46.9,30.24,SW,227,0.0,0.0,56,-99.99,,,-99.99,meteobridge,2014-08-28 11:40:00,
2014-08-28 04:41:00,62.8,46.9,30.24,WNW,298,0.0,0.0,56,-99.99,,,-99.99,meteobridge,2014-08-28 11:41:00,
2014-08-28 04:43:00,62.6,46.8,30.24,SW,220,0.0,0.0,56,-99.99,,,-99.99,meteobridge,2014-08-28 11:43:00,
2014-08-28 04:44:00,62.4,46.6,30.24,SSW,206,0.0,0.0,56,-99.99,,,-99.99,meteobridge,2014-08-28 11:44:00,
2014-08-28 04:45:00,62.6,46.8,30.24,SSW,208,0.0,0.0,56,-99.99,,,-99.99,meteobridge,2014-08-28 11:45:00,
2014-08-28 04:46:00,62.4,46.6,30.24,SW,216,0.0,0.0,56,-99.99,,,-99.99,meteobridge,2014-08-28 11:46:00,
2014-08-28 04:47:00,62.4,46.6,30.24,SW,217,0.0,0.0,56,-99.99,,,-99.99,meteobridge,2014-08-28 11:47:00,
2014-08-28 04:48:00,62.2,46.4,30.24,WNW,291,0.0,0.0,56,-99.99,,,-99.99,meteobridge,2014-08-28 11:48:00,
2014-08-28 04:50:00,62.2,46.8,30.24,WNW,295,0.0,0.0,57,-99.99,,,-99.99,meteobridge,2014-08-28 11:50:00,
2014-08-28 04:51:00,62.2,46.4,30.24,WSW,248,0.0,0.0,56,-99.99,,,-99.99,meteobridge,2014-08-28 11:51:00,
2014-08-28 04:52:00,62.1,46.6,30.24,WSW,240,0.0,0.0,57,-99.99,,,-99.99,meteobridge,2014-08-28 11:52:00,
2014-08-28 04:53:00,62.1,46.6,30.24,SSW,195,0.0,0.9,57,-99.99,,,-99.99,meteobridge,2014-08-28 11:53:00,
2014-08-28 04:54:00,62.1,46.6,30.24,South,172,0.9,0.9,57,-99.99,,,-99.99,meteobridge,2014-08-28 11:54:00,
2014-08-28 04:57:00,61.9,46.0,30.24,SSE,167,0.0,0.0,56,-99.99,,,-99.99,meteobridge,2014-08-28 11:57:00,
2014-08-28 04:58:00,61.9,46.0,30.24,SSE,150,2.0,2.0,56,-99.99,,,-99.99,meteobridge,2014-08-28 11:58:00,
2014-08-28 05:00:00,61.9,46.0,30.24,West,264,0.9,2.0,56,-99.99,,,-99.99,meteobridge,2014-08-28 12:00:00,
2014-08-28 05:02:00,61.9,46.0,30.24,South,188,2.0,2.9,56,-99.99,,,-99.99,meteobridge,2014-08-28 12:02:00,
2014-08-28 05:03:00,62.1,46.6,30.24,SE,133,0.0,2.9,57,-99.99,,,-99.99,meteobridge,2014-08-28 12:03:00,
2014-08-28 05:07:00,61.9,46.0,30.24,WSW,241,2.0,2.0,56,-99.99,,,-99.99,meteobridge,2014-08-28 12:07:00,
2014-08-28 05:08:00,61.9,46.0,30.24,North,0,2.0,4.0,56,-99.99,,,-99.99,meteobridge,2014-08-28 12:08:00,
2014-08-28 05:09:00,61.7,45.9,30.24,West,272,0.9,4.0,56,-99.99,,,-99.99,meteobridge,2014-08-28 12:09:00,
2014-08-28 05:13:00,61.7,46.4,30.24,West,274,0.0,0.0,57,-99.99,,,-99.99,meteobridge,2014-08-28 12:13:00,
2014-08-28 05:14:00,61.7,46.4,30.24,North,0,0.9,4.9,57,-99.99,,,-99.99,meteobridge,2014-08-28 12:14:00,
2014-08-28 05:15:00,61.7,46.4,30.24,NNW,330,0.0,4.9,57,-99.99,,,-99.99,meteobridge,2014-08-28 12:15:00,
2014-08-28 05:18:00,61.5,46.2,30.24,NW,313,0.9,2.0,57,-99.99,,,-99.99,meteobridge,2014-08-28 12:18:00,
2014-08-28 05:19:00,61.5,46.2,30.24,NW,323,0.0,2.0,57,-99.99,,,-99.99,meteobridge,2014-08-28 12:19:00,
2014-08-28 05:20:00,61.5,46.2,30.24,WNW,298,0.9,2.0,57,-99.99,,,-99.99,meteobridge,2014-08-28 12:20:00,
2014-08-28 05:22:00,61.3,45.5,30.24,North,0,2.0,2.9,56,-99.99,,,-99.99,meteobridge,2014-08-28 12:22:00,
2014-08-28 05:23:00,61.3,45.5,30.24,North,356,2.0,4.9,56,-99.99,,,-99.99,meteobridge,2014-08-28 12:23:00,
2014-08-28 05:24:00,61.3,45.5,30.24,WNW,289,0.0,4.9,56,-99.99,,,-99.99,meteobridge,2014-08-28 12:24:00,
2014-08-28 05:25:00,61.3,46.0,30.24,SE,143,0.9,2.9,57,-99.99,,,-99.99,meteobridge,2014-08-28 12:25:00,
2014-08-28 05:27:00,61.3,45.5,30.24,SSE,161,0.0,0.9,56,-99.99,,,-99.99,meteobridge,2014-08-28 12:27:00,
2014-08-28 05:28:00,61.5,46.2,30.24,SE,143,0.0,0.0,57,-99.99,,,-99.99,meteobridge,2014-08-28 12:28:00,
2014-08-28 05:29:00,61.3,46.0,30.24,SE,130,0.0,0.0,57,-99.99,,,-99.99,meteobridge,2014-08-28 12:29:00,
2014-08-28 05:31:00,61.2,46.2,30.24,SE,137,0.0,0.0,58,-99.99,,,-99.99,meteobridge,2014-08-28 12:31:00,
2014-08-28 05:33:00,61.3,46.4,30.24,WSW,250,0.0,0.0,58,-99.99,,,-99.99,meteobridge,2014-08-28 12:33:00,
2014-08-28 05:34:00,61.3,46.4,30.24,WSW,250,0.0,0.0,58,-99.99,,,-99.99,meteobridge,2014-08-28 12:34:00,
2014-08-28 05:35:00,61.2,46.2,30.24,WNW,294,0.0,0.0,58,-99.99,,,-99.99,meteobridge,2014-08-28 12:35:00,
2014-08-28 05:36:00,61.2,46.2,30.24,SW,220,0.0,0.0,58,-99.99,,,-99.99,meteobridge,2014-08-28 12:36:00,
2014-08-28 05:37:00,61.2,46.2,30.27,SSW,202,0.0,0.0,58,-99.99,,,-99.99,meteobridge,2014-08-28 12:37:00,
2014-08-28 05:38:00,61.2,46.2,30.27,SW,234,0.0,0.0,58,-99.99,,,-99.99,meteobridge,2014-08-28 12:38:00,
2014-08-28 05:39:00,61.0,46.0,30.27,SW,236,0.0,0.0,58,-99.99,,,-99.99,meteobridge,2014-08-28 12:39:00,
2014-08-28 05:40:00,61.0,46.6,30.27,SE,138,0.0,0.0,59,-99.99,,,-99.99,meteobridge,2014-08-28 12:40:00,
2014-08-28 05:42:00,61.0,46.0,30.27,SE,141,0.0,0.0,58,-99.99,,,-99.99,meteobridge,2014-08-28 12:42:00,
2014-08-28 05:43:00,61.0,46.0,30.27,SE,136,0.0,0.0,58,-99.99,,,-99.99,meteobridge,2014-08-28 12:43:00,
2014-08-28 05:44:00,60.8,45.9,30.27,SE,133,0.0,0.0,58,-99.99,,,-99.99,meteobridge,2014-08-28 12:44:00,
2014-08-28 05:45:00,60.8,45.9,30.27,SE,134,0.0,0.0,58,-99.99,,,-99.99,meteobridge,2014-08-28 12:45:00,
2014-08-28 05:48:00,60.8,45.9,30.27,SE,134,0.0,0.0,58,-99.99,,,-99.99,meteobridge,2014-08-28 12:48:00,
2014-08-28 05:49:00,60.6,46.2,30.27,SE,133,0.0,0.0,59,-99.99,,,-99.99,meteobridge,2014-08-28 12:49:00,
2014-08-28 05:50:00,60.6,46.2,30.27,SE,136,0.0,0.0,59,-99.99,,,-99.99,meteobridge,2014-08-28 12:50:00,
2014-08-28 05:51:00,60.6,46.2,30.27,SE,134,0.0,0.0,59,-99.99,,,-99.99,meteobridge,2014-08-28 12:51:00,
2014-08-28 05:53:00,60.4,46.0,30.27,SE,136,0.0,0.0,59,-99.99,,,-99.99,meteobridge,2014-08-28 12:53:00,
2014-08-28 05:55:00,60.4,46.0,30.27,SSE,161,0.0,0.0,59,-99.99,,,-99.99,meteobridge,2014-08-28 12:55:00,
2014-08-28 05:56:00,60.4,46.0,30.27,SSE,158,0.0,0.0,59,-99.99,,,-99.99,meteobridge,2014-08-28 12:56:00,
2014-08-28 05:59:00,60.3,45.9,30.27,SSE,164,0.0,0.0,59,-99.99,,,-99.99,meteobridge,2014-08-28 12:59:00,
2014-08-28 06:00:00,60.3,45.9,30.27,SSE,165,0.0,0.0,59,-99.99,,,-99.99,meteobridge,2014-08-28 13:00:00,
2014-08-28 06:01:00,60.3,45.9,30.27,SSE,164,0.0,0.0,59,-99.99,,,-99.99,meteobridge,2014-08-28 13:01:00,
2014-08-28 06:02:00,60.3,45.9,30.27,South,169,0.0,0.0,59,-99.99,,,-99.99,meteobridge,2014-08-28 13:02:00,
2014-08-28 06:05:00,60.1,45.3,30.27,SE,127,0.0,2.9,58,-99.99,,,-99.99,meteobridge,2014-08-28 13:05:00,
2014-08-28 06:06:00,60.3,45.5,30.27,SE,128,0.0,2.9,58,-99.99,,,-99.99,meteobridge,2014-08-28 13:06:00,
2014-08-28 06:08:00,60.3,45.5,30.27,SE,126,0.0,0.0,58,-99.99,,,-99.99,meteobridge,2014-08-28 13:08:00,
2014-08-28 06:09:00,60.3,45.5,30.27,ESE,123,0.0,0.9,58,-99.99,,,-99.99,meteobridge,2014-08-28 13:09:00,
2014-08-28 06:11:00,60.1,45.3,30.27,West,272,0.0,2.0,58,-99.99,,,-99.99,meteobridge,2014-08-28 13:11:00,
2014-08-28 06:13:00,60.1,45.7,30.27,North,0,0.9,2.0,59,-99.99,,,-99.99,meteobridge,2014-08-28 13:13:00,
2014-08-28 06:16:00,60.1,45.7,30.27,North,352,0.0,2.9,59,-99.99,,,-99.99,meteobridge,2014-08-28 13:16:00,
2014-08-28 06:17:00,60.1,45.7,30.27,North,357,2.0,2.0,59,-99.99,,,-99.99,meteobridge,2014-08-28 13:17:00,
2014-08-28 06:18:00,60.1,45.7,30.27,West,268,0.9,2.0,59,-99.99,,,-99.99,meteobridge,2014-08-28 13:18:00,
2014-08-28 06:19:00,60.1,45.7,30.27,SW,233,0.9,2.0,59,-99.99,,,-99.99,meteobridge,2014-08-28 13:19:00,
2014-08-28 06:21:00,60.1,45.7,30.27,WSW,248,0.0,2.0,59,-99.99,,,-99.99,meteobridge,2014-08-28 13:21:00,
2014-08-28 06:22:00,60.1,45.7,30.27,WSW,244,0.0,0.9,59,-99.99,,,-99.99,meteobridge,2014-08-28 13:22:00,
2014-08-28 06:24:00,60.1,45.7,30.27,ESE,110,0.0,6.0,59,-99.99,,,-99.99,meteobridge,2014-08-28 13:24:00,
2014-08-28 06:26:00,60.1,45.7,30.27,ESE,112,0.0,0.0,59,-99.99,,,-99.99,meteobridge,2014-08-28 13:26:00,
2014-08-28 06:27:00,60.1,45.7,30.27,ESE,110,0.0,0.0,59,-99.99,,,-99.99,meteobridge,2014-08-28 13:27:00,
2014-08-28 06:29:00,60.1,45.7,30.27,ESE,112,0.0,0.0,59,-99.99,,,-99.99,meteobridge,2014-08-28 13:29:00,
2014-08-28 06:32:00,60.1,45.7,30.27,ESE,112,0.0,0.0,59,-99.99,,,-99.99,meteobridge,2014-08-28 13:32:00,
2014-08-28 06:33:00,60.1,45.7,30.27,South,182,0.0,0.0,59,-99.99,,,-99.99,meteobridge,2014-08-28 13:33:00,
2014-08-28 06:34:00,60.1,45.7,30.27,SW,236,0.9,2.9,59,-99.99,,,-99.99,meteobridge,2014-08-28 13:34:00,
2014-08-28 06:38:00,60.1,45.7,30.29,NNW,335,0.0,0.9,59,-99.99,,,-99.99,meteobridge,2014-08-28 13:38:00,
2014-08-28 06:39:00,60.1,45.3,30.29,NNW,342,0.0,0.0,58,-99.99,,,-99.99,meteobridge,2014-08-28 13:39:00,
2014-08-28 06:40:00,60.1,45.3,30.29,NW,325,0.0,0.0,58,-99.99,,,-99.99,meteobridge,2014-08-28 13:40:00,
2014-08-28 06:43:00,60.1,45.7,30.29,NNW,347,0.0,0.9,59,-99.99,,,-99.99,meteobridge,2014-08-28 13:43:00,
2014-08-28 06:44:00,60.1,45.3,30.29,NNW,336,0.0,0.0,58,-99.99,,,-99.99,meteobridge,2014-08-28 13:44:00,
2014-08-28 06:45:00,60.1,45.7,30.29,NNW,335,0.0,0.0,59,-99.99,,,-99.99,meteobridge,2014-08-28 13:45:00,
2014-08-28 06:46:00,60.1,45.7,30.29,West,264,0.0,0.0,59,-99.99,,,-99.99,meteobridge,2014-08-28 13:46:00,
2014-08-28 06:48:00,60.1,45.3,30.29,SW,233,0.0,0.0,58,-99.99,,,-99.99,meteobridge,2014-08-28 13:48:00,
2014-08-28 06:49:00,60.1,45.3,30.29,WSW,241,0.0,0.0,58,-99.99,,,-99.99,meteobridge,2014-08-28 13:49:00,
2014-08-28 06:50:00,60.1,45.3,30.29,SW,234,0.0,0.0,58,-99.99,,,-99.99,meteobridge,2014-08-28 13:50:00,
2014-08-28 06:51:00,60.1,45.3,30.29,WSW,240,0.0,0.0,58,-99.99,,,-99.99,meteobridge,2014-08-28 13:51:00,
2014-08-28 06:53:00,60.1,45.3,30.30,North,0,0.0,0.9,58,-99.99,,,-99.99,meteobridge,2014-08-28 13:53:00,
2014-08-28 06:54:00,60.1,45.3,30.30,North,0,0.0,0.0,58,-99.99,,,-99.99,meteobridge,2014-08-28 13:54:00,
2014-08-28 06:55:00,60.1,45.3,30.30,NW,320,0.0,0.0,58,-99.99,,,-99.99,meteobridge,2014-08-28 13:55:00,
2014-08-28 06:56:00,60.1,45.7,30.30,NW,325,0.0,0.0,59,-99.99,,,-99.99,meteobridge,2014-08-28 13:56:00,
2014-08-28 06:58:00,60.1,45.7,30.30,NW,315,0.0,0.0,59,-99.99,,,-99.99,meteobridge,2014-08-28 13:58:00,
2014-08-28 06:59:00,60.1,46.2,30.30,NW,318,0.0,0.9,60,-99.99,,,-99.99,meteobridge,2014-08-28 13:59:00,
2014-08-28 07:00:00,60.1,46.2,30.30,WSW,246,0.0,2.0,60,-99.99,,,-99.99,meteobridge,2014-08-28 14:00:00,
2014-08-28 07:01:00,60.1,45.7,30.30,WSW,257,0.0,2.0,59,-99.99,,,-99.99,meteobridge,2014-08-28 14:01:00,
2014-08-28 07:04:00,60.1,45.7,30.30,WSW,253,0.0,0.0,59,-99.99,,,-99.99,meteobridge,2014-08-28 14:04:00,
2014-08-28 07:05:00,60.1,46.2,30.30,WSW,248,0.0,0.0,60,-99.99,,,-99.99,meteobridge,2014-08-28 14:05:00,
2014-08-28 07:06:00,60.3,45.9,30.30,WSW,243,0.0,0.0,59,-99.99,,,-99.99,meteobridge,2014-08-28 14:06:00,
2014-08-28 07:07:00,60.3,45.9,30.30,WSW,247,0.0,0.0,59,-99.99,,,-99.99,meteobridge,2014-08-28 14:07:00,
2014-08-28 07:08:00,60.4,46.4,30.30,WSW,244,0.0,0.0,60,-99.99,,,-99.99,meteobridge,2014-08-28 14:08:00,
2014-08-28 07:09:00,60.4,46.9,30.30,WSW,243,0.0,0.0,61,-99.99,,,-99.99,meteobridge,2014-08-28 14:09:00,
2014-08-28 07:10:00,60.4,46.9,30.30,WSW,257,0.0,0.0,61,-99.99,,,-99.99,meteobridge,2014-08-28 14:10:00,
2014-08-28 07:12:00,60.6,46.2,30.30,NNW,343,0.9,0.9,59,-99.99,,,-99.99,meteobridge,2014-08-28 14:12:00,
2014-08-28 07:14:00,60.6,45.7,30.30,North,0,0.0,2.0,58,-99.99,,,-99.99,meteobridge,2014-08-28 14:14:00,
2014-08-28 07:17:00,61.0,45.7,30.30,North,0,0.9,0.9,57,-99.99,,,-99.99,meteobridge,2014-08-28 14:17:00,
2014-08-28 07:18:00,61.2,45.9,30.30,South,191,0.9,2.9,57,-99.99,,,-99.99,meteobridge,2014-08-28 14:18:00,
2014-08-28 07:19:00,61.3,46.0,30.30,North,0,2.9,2.9,57,-99.99,,,-99.99,meteobridge,2014-08-28 14:19:00,
2014-08-28 07:22:00,61.3,46.0,30.30,North,0,0.0,2.9,57,-99.99,,,-99.99,meteobridge,2014-08-28 14:22:00,
2014-08-28 07:25:00,61.7,45.9,30.29,North,0,0.0,0.0,56,-99.99,,,-99.99,meteobridge,2014-08-28 14:25:00,
2014-08-28 07:27:00,61.9,46.0,30.29,North,352,0.0,0.0,56,-99.99,,,-99.99,meteobridge,2014-08-28 14:27:00,
2014-08-28 07:28:00,62.1,46.2,30.29,North,354,0.0,0.0,56,-99.99,,,-99.99,meteobridge,2014-08-28 14:28:00,
2014-08-28 07:29:00,62.2,46.4,30.29,North,357,0.0,0.0,56,-99.99,,,-99.99,meteobridge,2014-08-28 14:29:00,
2014-08-28 07:30:00,62.2,45.9,30.29,North,0,0.0,0.0,55,-99.99,,,-99.99,meteobridge,2014-08-28 14:30:00,
2014-08-28 07:31:00,62.2,45.9,30.29,North,0,0.0,0.0,55,-99.99,,,-99.99,meteobridge,2014-08-28 14:31:00,
2014-08-28 07:32:00,62.6,46.8,30.29,North,0,0.0,0.0,56,-99.99,,,-99.99,meteobridge,2014-08-28 14:32:00,
2014-08-28 07:33:00,62.8,46.9,30.29,North,359,0.0,0.0,56,-99.99,,,-99.99,meteobridge,2014-08-28 14:33:00,
2014-08-28 07:34:00,62.8,46.9,30.29,North,357,0.0,0.0,56,-99.99,,,-99.99,meteobridge,2014-08-28 14:34:00,
2014-08-28 07:35:00,63.1,47.1,30.29,North,359,0.0,0.0,56,-99.99,,,-99.99,meteobridge,2014-08-28 14:35:00,
2014-08-28 07:36:00,63.1,46.8,30.29,North,0,0.0,0.0,55,-99.99,,,-99.99,meteobridge,2014-08-28 14:36:00,
2014-08-28 07:37:00,63.1,46.2,30.30,North,0,0.0,0.0,54,-99.99,,,-99.99,meteobridge,2014-08-28 14:37:00,
2014-08-28 07:39:00,63.3,46.4,30.30,North,0,0.0,0.0,54,-99.99,,,-99.99,meteobridge,2014-08-28 14:39:00,
2014-08-28 07:40:00,63.3,46.4,30.30,North,0,0.0,0.0,54,-99.99,,,-99.99,meteobridge,2014-08-28 14:40:00,
2014-08-28 07:42:00,63.9,46.9,30.30,North,0,0.0,0.0,54,-99.99,,,-99.99,meteobridge,2014-08-28 14:42:00,
2014-08-28 07:44:00,63.9,46.9,30.30,North,352,0.0,0.0,54,-99.99,,,-99.99,meteobridge,2014-08-28 14:44:00,
2014-08-28 07:45:00,64.0,46.6,30.30,North,349,0.0,0.0,53,-99.99,,,-99.99,meteobridge,2014-08-28 14:45:00,
2014-08-28 07:46:00,64.2,47.3,30.30,North,359,0.0,0.0,54,-99.99,,,-99.99,meteobridge,2014-08-28 14:46:00,
2014-08-28 07:47:00,64.4,46.9,30.30,North,359,0.0,0.0,53,-99.99,,,-99.99,meteobridge,2014-08-28 14:47:00,
2014-08-28 07:49:00,64.8,47.3,30.30,North,0,0.0,0.0,53,-99.99,,,-99.99,meteobridge,2014-08-28 14:49:00,
2014-08-28 07:50:00,64.6,47.1,30.30,North,0,0.0,0.0,53,-99.99,,,-99.99,meteobridge,2014-08-28 14:50:00,
2014-08-28 07:51:00,64.8,47.3,30.30,North,0,0.0,0.0,53,-99.99,,,-99.99,meteobridge,2014-08-28 14:51:00,
2014-08-28 07:52:00,64.9,47.5,30.29,North,0,0.0,0.0,53,-99.99,,,-99.99,meteobridge,2014-08-28 14:52:00,
2014-08-28 07:53:00,64.9,47.5,30.29,NW,323,0.0,0.0,53,-99.99,,,-99.99,meteobridge,2014-08-28 14:53:00,
2014-08-28 07:55:00,65.3,47.7,30.29,North,0,0.0,0.0,53,-99.99,,,-99.99,meteobridge,2014-08-28 14:55:00,
2014-08-28 07:56:00,65.5,47.5,30.29,North,0,0.0,0.0,52,-99.99,,,-99.99,meteobridge,2014-08-28 14:56:00,
2014-08-28 07:57:00,65.7,47.5,30.29,NNW,342,0.0,0.0,52,-99.99,,,-99.99,meteobridge,2014-08-28 14:57:00,
2014-08-28 07:59:00,65.7,47.5,30.29,North,0,0.0,0.0,52,-99.99,,,-99.99,meteobridge,2014-08-28 14:59:00,
2014-08-28 08:00:00,65.8,47.1,30.29,North,359,0.0,0.0,51,-99.99,,,-99.99,meteobridge,2014-08-28 15:00:00,
2014-08-28 08:02:00,66.0,47.3,30.29,North,0,0.0,0.0,51,-99.99,,,-99.99,meteobridge,2014-08-28 15:02:00,
2014-08-28 08:03:00,66.2,46.9,30.29,North,0,0.0,0.0,50,-99.99,,,-99.99,meteobridge,2014-08-28 15:03:00,
2014-08-28 08:08:00,66.7,46.4,30.28,North,0,0.0,0.0,48,-99.99,,,-99.99,meteobridge,2014-08-28 15:08:00,
2014-08-28 08:09:00,66.7,46.4,30.28,NW,316,0.0,0.0,48,-99.99,,,-99.99,meteobridge,2014-08-28 15:09:00,
2014-08-28 08:14:00,67.5,47.1,30.28,North,0,0.0,0.0,48,-99.99,,,-99.99,meteobridge,2014-08-28 15:14:00,
2014-08-28 08:15:00,67.6,47.3,30.28,North,0,0.0,0.0,48,-99.99,,,-99.99,meteobridge,2014-08-28 15:15:00,
2014-08-28 08:16:00,67.8,47.5,30.28,North,0,0.0,0.0,48,-99.99,,,-99.99,meteobridge,2014-08-28 15:16:00,
2014-08-28 08:17:00,68.0,47.7,30.28,North,0,0.0,0.0,48,-99.99,,,-99.99,meteobridge,2014-08-28 15:17:00,
2014-08-28 08:19:00,68.2,47.7,30.28,North,350,0.0,0.0,48,-99.99,,,-99.99,meteobridge,2014-08-28 15:19:00,
2014-08-28 08:21:00,68.5,47.5,30.28,North,0,0.9,0.9,47,-99.99,,,-99.99,meteobridge,2014-08-28 15:21:00,
2014-08-28 08:22:00,68.5,46.9,30.27,North,0,0.0,0.9,46,-99.99,,,-99.99,meteobridge,2014-08-28 15:22:00,
2014-08-28 08:24:00,68.7,47.1,30.27,NNW,344,0.0,0.0,46,-99.99,,,-99.99,meteobridge,2014-08-28 15:24:00,
2014-08-28 08:25:00,69.1,48.0,30.27,NNW,339,0.0,0.0,47,-99.99,,,-99.99,meteobridge,2014-08-28 15:25:00,
2014-08-28 08:26:00,69.1,46.8,30.27,NNW,330,0.0,0.0,45,-99.99,,,-99.99,meteobridge,2014-08-28 15:26:00,
2014-08-28 08:27:00,69.3,46.9,30.27,NW,315,0.0,0.0,45,-99.99,,,-99.99,meteobridge,2014-08-28 15:27:00,
2014-08-28 08:30:00,69.6,46.8,30.27,NW,304,0.0,0.0,44,-99.99,,,-99.99,meteobridge,2014-08-28 15:30:00,
2014-08-28 08:31:00,69.4,46.0,30.27,NW,305,0.0,0.0,43,-99.99,,,-99.99,meteobridge,2014-08-28 15:31:00,
2014-08-28 08:32:00,69.8,46.9,30.27,NW,306,0.0,0.0,44,-99.99,,,-99.99,meteobridge,2014-08-28 15:32:00,
2014-08-28 08:36:00,70.2,47.3,30.27,WNW,296,0.0,0.0,44,-99.99,,,-99.99,meteobridge,2014-08-28 15:36:00,
2014-08-28 08:37:00,70.2,47.3,30.27,WNW,301,0.0,0.0,44,-99.99,,,-99.99,meteobridge,2014-08-28 15:37:00,
2014-08-28 08:39:00,70.7,47.1,30.27,NNW,329,0.0,0.0,43,-99.99,,,-99.99,meteobridge,2014-08-28 15:39:00,
2014-08-28 08:42:00,71.1,46.8,30.27,North,0,0.0,0.0,42,-99.99,,,-99.99,meteobridge,2014-08-28 15:42:00,
2014-08-28 08:43:00,71.1,47.5,30.27,North,0,0.0,0.0,43,-99.99,,,-99.99,meteobridge,2014-08-28 15:43:00,
2014-08-28 08:46:00,71.2,46.9,30.27,North,0,0.9,2.0,42,-99.99,,,-99.99,meteobridge,2014-08-28 15:46:00,
2014-08-28 08:47:00,71.4,47.8,30.27,North,0,0.0,2.0,43,-99.99,,,-99.99,meteobridge,2014-08-28 15:47:00,
2014-08-28 08:48:00,71.4,47.1,30.27,North,0,0.0,2.0,42,-99.99,,,-99.99,meteobridge,2014-08-28 15:48:00,
2014-08-28 08:49:00,71.8,47.5,30.27,North,0,0.0,0.0,42,-99.99,,,-99.99,meteobridge,2014-08-28 15:49:00,
2014-08-28 08:52:00,72.1,47.8,30.26,North,0,0.0,0.0,42,-99.99,,,-99.99,meteobridge,2014-08-28 15:52:00,
2014-08-28 08:53:00,72.1,47.8,30.26,West,275,0.0,0.0,42,-99.99,,,-99.99,meteobridge,2014-08-28 15:53:00,
2014-08-28 08:54:00,72.1,47.8,30.26,North,0,0.9,0.9,42,-99.99,,,-99.99,meteobridge,2014-08-28 15:54:00,
2014-08-28 08:55:00,72.3,47.3,30.26,North,0,0.0,0.9,41,-99.99,,,-99.99,meteobridge,2014-08-28 15:55:00,
2014-08-28 08:56:00,72.5,47.5,30.26,North,0,0.0,0.9,41,-99.99,,,-99.99,meteobridge,2014-08-28 15:56:00,
2014-08-28 08:58:00,72.7,47.7,30.26,North,0,0.9,0.9,41,-99.99,,,-99.99,meteobridge,2014-08-28 15:58:00,
2014-08-28 08:59:00,72.9,47.8,30.26,North,0,2.0,2.0,41,-99.99,,,-99.99,meteobridge,2014-08-28 15:59:00,
2014-08-28 09:00:00,72.9,47.1,30.26,North,0,0.0,2.0,40,-99.99,,,-99.99,meteobridge,2014-08-28 16:00:00,
2014-08-28 09:03:00,73.2,48.0,30.26,North,0,0.0,0.0,41,-99.99,,,-99.99,meteobridge,2014-08-28 16:03:00,
2014-08-28 09:04:00,73.4,48.9,30.26,North,0,0.0,0.0,42,-99.99,,,-99.99,meteobridge,2014-08-28 16:04:00,
2014-08-28 09:05:00,73.6,48.4,30.26,North,0,0.9,0.9,41,-99.99,,,-99.99,meteobridge,2014-08-28 16:05:00,
2014-08-28 09:08:00,73.9,48.7,30.24,NNW,328,0.0,0.9,41,-99.99,,,-99.99,meteobridge,2014-08-28 16:08:00,
2014-08-28 09:09:00,73.9,48.7,30.24,West,277,0.0,0.9,41,-99.99,,,-99.99,meteobridge,2014-08-28 16:09:00,
2014-08-28 09:10:00,73.9,48.7,30.24,NNW,333,0.9,2.0,41,-99.99,,,-99.99,meteobridge,2014-08-28 16:10:00,
2014-08-28 09:12:00,74.1,48.9,30.24,NW,325,0.0,2.0,41,-99.99,,,-99.99,meteobridge,2014-08-28 16:12:00,
2014-08-28 09:13:00,74.5,49.3,30.24,North,0,2.0,2.0,41,-99.99,,,-99.99,meteobridge,2014-08-28 16:13:00,
2014-08-28 09:15:00,74.7,48.7,30.24,NNW,328,0.0,2.0,40,-99.99,,,-99.99,meteobridge,2014-08-28 16:15:00,
2014-08-28 09:16:00,74.5,48.6,30.24,NNW,343,0.0,2.0,40,-99.99,,,-99.99,meteobridge,2014-08-28 16:16:00,
2014-08-28 09:18:00,74.8,48.9,30.24,North,0,0.9,0.9,40,-99.99,,,-99.99,meteobridge,2014-08-28 16:18:00,
2014-08-28 09:19:00,74.8,48.9,30.24,NNW,347,2.0,2.0,40,-99.99,,,-99.99,meteobridge,2014-08-28 16:19:00,
2014-08-28 09:20:00,74.8,48.2,30.24,NNW,343,2.0,2.0,39,-99.99,,,-99.99,meteobridge,2014-08-28 16:20:00,
2014-08-28 09:21:00,75.0,48.4,30.24,NNW,344,0.0,2.0,39,-99.99,,,-99.99,meteobridge,2014-08-28 16:21:00,
2014-08-28 09:23:00,75.4,49.5,30.23,NNW,339,0.0,0.0,40,-99.99,,,-99.99,meteobridge,2014-08-28 16:23:00,
2014-08-28 09:24:00,75.4,49.5,30.23,NNW,344,0.0,0.0,40,-99.99,,,-99.99,meteobridge,2014-08-28 16:24:00,
2014-08-28 09:25:00,75.6,48.9,30.23,WNW,301,2.0,2.0,39,-99.99,,,-99.99,meteobridge,2014-08-28 16:25:00,
2014-08-28 09:26:00,75.6,48.9,30.23,West,271,0.9,2.0,39,-99.99,,,-99.99,meteobridge,2014-08-28 16:26:00,
2014-08-28 09:28:00,75.7,48.4,30.23,WNW,296,0.0,2.9,38,-99.99,,,-99.99,meteobridge,2014-08-28 16:28:00,
2014-08-28 09:29:00,75.9,48.6,30.23,NW,322,0.0,2.0,38,-99.99,,,-99.99,meteobridge,2014-08-28 16:29:00,
2014-08-28 09:30:00,75.9,48.6,30.23,West,280,0.0,0.9,38,-99.99,,,-99.99,meteobridge,2014-08-28 16:30:00,
2014-08-28 09:31:00,75.9,48.6,30.23,West,263,0.9,2.0,38,-99.99,,,-99.99,meteobridge,2014-08-28 16:31:00,
2014-08-28 09:34:00,76.5,48.9,30.23,NW,311,2.0,2.0,38,-99.99,,,-99.99,meteobridge,2014-08-28 16:34:00,
2014-08-28 09:36:00,76.6,49.1,30.23,WNW,301,0.0,2.0,38,-99.99,,,-99.99,meteobridge,2014-08-28 16:36:00,
2014-08-28 09:41:00,77.0,48.7,30.24,North,352,0.9,2.0,37,-99.99,,,-99.99,meteobridge,2014-08-28 16:41:00,
2014-08-28 09:42:00,77.2,48.9,30.24,North,0,2.0,2.9,37,-99.99,,,-99.99,meteobridge,2014-08-28 16:42:00,
2014-08-28 09:47:00,77.4,49.1,30.24,North,0,0.0,2.9,37,-99.99,,,-99.99,meteobridge,2014-08-28 16:47:00,
2014-08-28 09:48:00,77.4,49.1,30.24,North,0,0.0,2.0,37,-99.99,,,-99.99,meteobridge,2014-08-28 16:48:00,
2014-08-28 09:50:00,77.5,48.6,30.24,NW,306,2.0,2.0,36,-99.99,,,-99.99,meteobridge,2014-08-28 16:50:00,
2014-08-28 09:52:00,78.1,48.2,30.23,NW,305,0.9,2.0,35,-99.99,,,-99.99,meteobridge,2014-08-28 16:52:00,
2014-08-28 09:53:00,77.9,48.0,30.23,NW,305,2.0,2.9,35,-99.99,,,-99.99,meteobridge,2014-08-28 16:53:00,
2014-08-28 09:54:00,77.9,48.7,30.23,WSW,258,0.9,2.9,36,-99.99,,,-99.99,meteobridge,2014-08-28 16:54:00,
2014-08-28 09:56:00,78.3,48.4,30.23,SW,230,0.9,0.9,35,-99.99,,,-99.99,meteobridge,2014-08-28 16:56:00,
2014-08-28 09:58:00,78.4,48.6,30.23,WSW,239,0.9,2.9,35,-99.99,,,-99.99,meteobridge,2014-08-28 16:58:00,
2014-08-28 09:59:00,78.4,48.6,30.23,North,359,2.0,2.0,35,-99.99,,,-99.99,meteobridge,2014-08-28 16:59:00,
2014-08-28 10:00:00,78.6,48.7,30.23,NW,323,0.0,2.9,35,-99.99,,,-99.99,meteobridge,2014-08-28 17:00:00,
2014-08-28 10:02:00,79.0,48.9,30.23,West,270,0.9,2.9,35,-99.99,,,-99.99,meteobridge,2014-08-28 17:02:00,
2014-08-28 10:03:00,79.0,48.9,30.23,West,270,0.9,2.0,35,-99.99,,,-99.99,meteobridge,2014-08-28 17:03:00,
2014-08-28 10:04:00,79.0,48.9,30.23,West,271,0.0,2.0,35,-99.99,,,-99.99,meteobridge,2014-08-28 17:04:00,
2014-08-28 10:05:00,79.2,49.1,30.23,West,270,0.9,2.0,35,-99.99,,,-99.99,meteobridge,2014-08-28 17:05:00,
2014-08-28 10:08:00,79.3,48.6,30.22,West,277,0.0,2.0,34,-99.99,,,-99.99,meteobridge,2014-08-28 17:08:00,
2014-08-28 10:09:00,79.5,49.5,30.22,WNW,302,2.0,2.0,35,-99.99,,,-99.99,meteobridge,2014-08-28 17:09:00,
2014-08-28 10:10:00,79.7,48.9,30.22,West,280,0.9,2.0,34,-99.99,,,-99.99,meteobridge,2014-08-28 17:10:00,
2014-08-28 10:11:00,79.9,48.9,30.22,West,278,0.9,2.0,34,-99.99,,,-99.99,meteobridge,2014-08-28 17:11:00,
2014-08-28 10:13:00,80.1,49.1,30.22,WNW,284,0.9,4.0,34,-99.99,,,-99.99,meteobridge,2014-08-28 17:13:00,
2014-08-28 10:15:00,80.1,49.1,30.22,WNW,285,0.0,0.9,34,-99.99,,,-99.99,meteobridge,2014-08-28 17:15:00,
2014-08-28 10:16:00,80.2,49.3,30.22,WNW,285,0.0,0.9,34,-99.99,,,-99.99,meteobridge,2014-08-28 17:16:00,
2014-08-28 10:17:00,80.4,49.5,30.22,WNW,284,0.0,2.0,34,-99.99,,,-99.99,meteobridge,2014-08-28 17:17:00,
2014-08-28 10:20:00,80.8,49.8,30.22,NW,316,0.9,2.9,34,-99.99,,,-99.99,meteobridge,2014-08-28 17:20:00,
2014-08-28 10:21:00,80.8,49.8,30.22,WNW,292,0.0,2.9,34,-99.99,,,-99.99,meteobridge,2014-08-28 17:21:00,
2014-08-28 10:22:00,81.1,49.3,30.20,WNW,287,0.9,2.9,33,-99.99,,,-99.99,meteobridge,2014-08-28 17:22:00,
2014-08-28 10:26:00,81.3,50.2,30.20,WNW,289,0.0,2.0,34,-99.99,,,-99.99,meteobridge,2014-08-28 17:26:00,
2014-08-28 10:27:00,81.7,50.5,30.20,WNW,289,0.0,2.0,34,-99.99,,,-99.99,meteobridge,2014-08-28 17:27:00,
2014-08-28 10:28:00,81.5,49.6,30.20,WNW,289,0.9,2.0,33,-99.99,,,-99.99,meteobridge,2014-08-28 17:28:00,
2014-08-28 10:29:00,81.5,50.4,30.20,WNW,288,2.0,2.0,34,-99.99,,,-99.99,meteobridge,2014-08-28 17:29:00,
2014-08-28 10:32:00,81.9,48.2,30.20,WNW,289,0.9,2.0,31,-99.99,,,-99.99,meteobridge,2014-08-28 17:32:00,
2014-08-28 10:33:00,82.0,48.4,30.20,WNW,289,0.9,2.0,31,-99.99,,,-99.99,meteobridge,2014-08-28 17:33:00,
2014-08-28 10:34:00,82.0,49.3,30.20,WNW,289,0.0,2.0,32,-99.99,,,-99.99,meteobridge,2014-08-28 17:34:00,
2014-08-28 10:35:00,82.0,48.4,30.20,WNW,289,0.0,0.0,31,-99.99,,,-99.99,meteobridge,2014-08-28 17:35:00,
2014-08-28 10:36:00,82.2,49.5,30.20,WNW,292,0.9,2.0,32,-99.99,,,-99.99,meteobridge,2014-08-28 17:36:00,
2014-08-28 10:38:00,82.2,49.5,30.22,WNW,298,0.9,2.0,32,-99.99,,,-99.99,meteobridge,2014-08-28 17:38:00,
2014-08-28 10:39:00,82.6,49.8,30.22,WNW,292,0.9,2.0,32,-99.99,,,-99.99,meteobridge,2014-08-28 17:39:00,
2014-08-28 10:40:00,82.6,49.8,30.22,WNW,289,2.0,4.0,32,-99.99,,,-99.99,meteobridge,2014-08-28 17:40:00,
2014-08-28 10:42:00,82.8,49.8,30.22,WNW,289,0.0,2.9,32,-99.99,,,-99.99,meteobridge,2014-08-28 17:42:00,
2014-08-28 10:44:00,82.9,50.0,30.22,WNW,299,0.9,2.0,32,-99.99,,,-99.99,meteobridge,2014-08-28 17:44:00,
2014-08-28 10:48:00,83.1,49.3,30.22,WNW,299,2.0,4.9,31,-99.99,,,-99.99,meteobridge,2014-08-28 17:48:00,
2014-08-28 10:49:00,82.9,49.3,30.22,NW,305,0.0,4.9,31,-99.99,,,-99.99,meteobridge,2014-08-28 17:49:00,
2014-08-28 10:50:00,83.1,49.3,30.22,WNW,294,2.0,2.9,31,-99.99,,,-99.99,meteobridge,2014-08-28 17:50:00,
2014-08-28 10:51:00,82.9,49.3,30.22,NW,304,0.0,2.9,31,-99.99,,,-99.99,meteobridge,2014-08-28 17:51:00,
2014-08-28 10:53:00,83.3,48.6,30.20,WNW,292,2.0,2.9,30,-99.99,,,-99.99,meteobridge,2014-08-28 17:53:00,
2014-08-28 10:54:00,83.3,49.5,30.20,WNW,291,0.0,2.9,31,-99.99,,,-99.99,meteobridge,2014-08-28 17:54:00,
2014-08-28 10:55:00,83.5,49.6,30.20,WNW,289,2.0,2.9,31,-99.99,,,-99.99,meteobridge,2014-08-28 17:55:00,
2014-08-28 10:56:00,83.5,48.7,30.20,WNW,291,0.9,2.9,30,-99.99,,,-99.99,meteobridge,2014-08-28 17:56:00,
2014-08-28 10:58:00,83.5,49.6,30.20,WNW,295,2.0,2.9,31,-99.99,,,-99.99,meteobridge,2014-08-28 17:58:00,
2014-08-28 11:00:00,83.3,47.7,30.20,WNW,294,0.0,2.0,29,-99.99,,,-99.99,meteobridge,2014-08-28 18:00:00,
2014-08-28 11:01:00,83.5,49.6,30.20,WNW,292,0.0,0.0,31,-99.99,,,-99.99,meteobridge,2014-08-28 18:01:00,
2014-08-28 11:02:00,83.5,49.6,30.20,WNW,292,0.9,0.9,31,-99.99,,,-99.99,meteobridge,2014-08-28 18:02:00,
2014-08-28 11:03:00,83.8,50.0,30.20,WNW,294,0.0,0.9,31,-99.99,,,-99.99,meteobridge,2014-08-28 18:03:00,
2014-08-28 11:04:00,84.0,50.2,30.20,WNW,292,2.0,2.0,31,-99.99,,,-99.99,meteobridge,2014-08-28 18:04:00,
2014-08-28 11:05:00,83.8,50.0,30.20,NW,304,0.9,2.0,31,-99.99,,,-99.99,meteobridge,2014-08-28 18:05:00,
2014-08-28 11:07:00,84.0,48.4,30.20,NW,305,4.0,4.0,29,-99.99,,,-99.99,meteobridge,2014-08-28 18:07:00,
2014-08-28 11:09:00,84.0,50.2,30.20,WNW,294,4.9,6.9,31,-99.99,,,-99.99,meteobridge,2014-08-28 18:09:00,
2014-08-28 11:10:00,84.0,48.4,30.20,NW,319,0.0,6.9,29,-99.99,,,-99.99,meteobridge,2014-08-28 18:10:00,
2014-08-28 11:12:00,84.2,48.6,30.20,NW,319,2.0,2.9,29,-99.99,,,-99.99,meteobridge,2014-08-28 18:12:00,
2014-08-28 11:13:00,84.2,48.6,30.20,NW,311,0.0,2.9,29,-99.99,,,-99.99,meteobridge,2014-08-28 18:13:00,
2014-08-28 11:14:00,84.4,48.7,30.20,NW,304,0.0,2.0,29,-99.99,,,-99.99,meteobridge,2014-08-28 18:14:00,
2014-08-28 11:15:00,84.4,48.7,30.20,NNW,328,0.9,2.9,29,-99.99,,,-99.99,meteobridge,2014-08-28 18:15:00,
2014-08-28 11:18:00,84.4,48.7,30.20,NW,323,0.0,0.0,29,-99.99,,,-99.99,meteobridge,2014-08-28 18:18:00,
2014-08-28 11:19:00,84.7,48.9,30.20,NW,309,0.0,0.0,29,-99.99,,,-99.99,meteobridge,2014-08-28 18:19:00,
2014-08-28 11:20:00,84.9,48.2,30.20,WNW,295,0.9,2.0,28,-99.99,,,-99.99,meteobridge,2014-08-28 18:20:00,
2014-08-28 11:21:00,84.7,48.9,30.20,WNW,294,0.9,2.0,29,-99.99,,,-99.99,meteobridge,2014-08-28 18:21:00,
2014-08-28 11:23:00,85.1,48.4,30.19,NW,312,2.0,2.9,28,-99.99,,,-99.99,meteobridge,2014-08-28 18:23:00,
2014-08-28 11:24:00,85.1,47.3,30.19,WNW,295,0.9,2.9,27,-99.99,,,-99.99,meteobridge,2014-08-28 18:24:00,
2014-08-28 11:25:00,85.1,48.4,30.19,WNW,294,0.9,2.9,28,-99.99,,,-99.99,meteobridge,2014-08-28 18:25:00,
2014-08-28 11:26:00,84.9,48.2,30.19,WNW,295,0.9,2.0,28,-99.99,,,-99.99,meteobridge,2014-08-28 18:26:00,
2014-08-28 11:29:00,85.3,48.6,30.19,WNW,299,2.0,2.0,28,-99.99,,,-99.99,meteobridge,2014-08-28 18:29:00,
2014-08-28 11:30:00,85.5,48.6,30.19,WNW,292,0.9,2.0,28,-99.99,,,-99.99,meteobridge,2014-08-28 18:30:00,
2014-08-28 11:31:00,85.5,48.6,30.19,WNW,296,0.9,2.0,28,-99.99,,,-99.99,meteobridge,2014-08-28 18:31:00,
2014-08-28 11:32:00,85.6,47.8,30.19,NW,313,2.0,2.9,27,-99.99,,,-99.99,meteobridge,2014-08-28 18:32:00,
2014-08-28 11:33:00,85.6,47.8,30.19,WNW,292,0.9,2.9,27,-99.99,,,-99.99,meteobridge,2014-08-28 18:33:00,
2014-08-28 11:34:00,85.6,47.8,30.19,WNW,295,2.0,2.0,27,-99.99,,,-99.99,meteobridge,2014-08-28 18:34:00,
2014-08-28 11:36:00,85.6,47.8,30.19,WNW,292,0.9,2.0,27,-99.99,,,-99.99,meteobridge,2014-08-28 18:36:00,
2014-08-28 11:37:00,85.8,48.0,30.19,NW,304,0.9,2.0,27,-99.99,,,-99.99,meteobridge,2014-08-28 18:37:00,
2014-08-28 11:38:00,85.8,48.0,30.19,NW,305,0.0,0.9,27,-99.99,,,-99.99,meteobridge,2014-08-28 18:38:00,
2014-08-28 11:39:00,86.0,48.2,30.19,WNW,296,0.0,2.0,27,-99.99,,,-99.99,meteobridge,2014-08-28 18:39:00,
2014-08-28 11:41:00,86.0,49.1,30.19,WNW,295,0.9,2.9,28,-99.99,,,-99.99,meteobridge,2014-08-28 18:41:00,
2014-08-28 11:42:00,86.4,48.4,30.19,NW,313,0.0,2.9,27,-99.99,,,-99.99,meteobridge,2014-08-28 18:42:00,
2014-08-28 11:43:00,86.5,48.6,30.19,NW,315,2.0,2.0,27,-99.99,,,-99.99,meteobridge,2014-08-28 18:43:00,
2014-08-28 11:44:00,86.4,48.4,30.19,NW,313,2.0,2.0,27,-99.99,,,-99.99,meteobridge,2014-08-28 18:44:00,
2014-08-28 11:46:00,86.7,48.7,30.19,NW,315,2.9,2.9,27,-99.99,,,-99.99,meteobridge,2014-08-28 18:46:00,
2014-08-28 11:48:00,86.5,48.6,30.19,NW,313,2.0,2.9,27,-99.99,,,-99.99,meteobridge,2014-08-28 18:48:00,
2014-08-28 11:49:00,86.5,46.6,30.19,NW,312,0.9,4.0,25,-99.99,,,-99.99,meteobridge,2014-08-28 18:49:00,
2014-08-28 11:50:00,86.5,47.7,30.19,NW,313,2.9,4.0,26,-99.99,,,-99.99,meteobridge,2014-08-28 18:50:00,
2014-08-28 11:51:00,86.5,47.7,30.19,NW,311,2.0,2.9,26,-99.99,,,-99.99,meteobridge,2014-08-28 18:51:00,
2014-08-28 11:53:00,86.7,47.7,30.18,NW,312,0.9,2.9,26,-99.99,,,-99.99,meteobridge,2014-08-28 18:53:00,
2014-08-28 11:55:00,86.5,47.7,30.18,NW,325,2.0,4.0,26,-99.99,,,-99.99,meteobridge,2014-08-28 18:55:00,
2014-08-28 11:56:00,86.7,45.7,30.18,NW,319,0.0,2.0,24,-99.99,,,-99.99,meteobridge,2014-08-28 18:56:00,
2014-08-28 11:58:00,86.7,45.7,30.18,NW,323,0.0,0.9,24,-99.99,,,-99.99,meteobridge,2014-08-28 18:58:00,
2014-08-28 12:01:00,87.3,47.1,30.18,NW,316,0.0,0.0,25,-99.99,,,-99.99,meteobridge,2014-08-28 19:01:00,
2014-08-28 12:03:00,87.4,47.3,30.18,NW,315,4.9,4.9,25,-99.99,,,-99.99,meteobridge,2014-08-28 19:03:00,
2014-08-28 12:05:00,87.6,47.5,30.18,NW,323,0.0,2.9,25,-99.99,,,-99.99,meteobridge,2014-08-28 19:05:00,
2014-08-28 12:06:00,87.6,46.4,30.18,NW,316,0.9,2.0,24,-99.99,,,-99.99,meteobridge,2014-08-28 19:06:00,
2014-08-28 12:07:00,87.6,46.4,30.18,NW,313,2.0,2.0,24,-99.99,,,-99.99,meteobridge,2014-08-28 19:07:00,
2014-08-28 12:08:00,87.6,46.4,30.17,NW,313,0.0,2.0,24,-99.99,,,-99.99,meteobridge,2014-08-28 19:08:00,
2014-08-28 12:09:00,87.6,46.4,30.17,NW,313,0.0,2.0,24,-99.99,,,-99.99,meteobridge,2014-08-28 19:09:00,
2014-08-28 12:11:00,88.0,46.6,30.17,NW,311,2.9,2.9,24,-99.99,,,-99.99,meteobridge,2014-08-28 19:11:00,
2014-08-28 12:12:00,87.8,45.3,30.17,NW,309,2.9,2.9,23,-99.99,,,-99.99,meteobridge,2014-08-28 19:12:00,
2014-08-28 12:14:00,87.8,45.3,30.17,NW,309,2.0,2.9,23,-99.99,,,-99.99,meteobridge,2014-08-28 19:14:00,
2014-08-28 12:15:00,87.8,45.3,30.17,NW,309,0.0,2.0,23,-99.99,,,-99.99,meteobridge,2014-08-28 19:15:00,
2014-08-28 12:16:00,87.8,45.3,30.17,NW,309,0.0,0.0,23,-99.99,,,-99.99,meteobridge,2014-08-28 19:16:00,
2014-08-28 12:17:00,88.0,45.5,30.17,NW,309,0.0,0.0,23,-99.99,,,-99.99,meteobridge,2014-08-28 19:17:00,
2014-08-28 12:18:00,88.2,45.7,30.17,NW,309,2.9,2.9,23,-99.99,,,-99.99,meteobridge,2014-08-28 19:18:00,
2014-08-28 12:19:00,88.0,45.5,30.17,NW,309,2.0,2.9,23,-99.99,,,-99.99,meteobridge,2014-08-28 19:19:00,
2014-08-28 12:23:00,88.2,45.7,30.16,NW,311,4.0,6.0,23,-99.99,,,-99.99,meteobridge,2014-08-28 19:23:00,
2014-08-28 12:24:00,88.2,45.7,30.16,NW,309,0.0,6.0,23,-99.99,,,-99.99,meteobridge,2014-08-28 19:24:00,
2014-08-28 12:28:00,88.5,46.0,30.16,NW,311,0.9,2.0,23,-99.99,,,-99.99,meteobridge,2014-08-28 19:28:00,
2014-08-28 12:29:00,88.5,47.1,30.16,NW,309,0.0,2.0,24,-99.99,,,-99.99,meteobridge,2014-08-28 19:29:00,
2014-08-28 12:30:00,88.9,47.5,30.16,NW,309,0.9,2.0,24,-99.99,,,-99.99,meteobridge,2014-08-28 19:30:00,
2014-08-28 12:32:00,89.1,47.7,30.16,NW,309,2.0,4.9,24,-99.99,,,-99.99,meteobridge,2014-08-28 19:32:00,
2014-08-28 12:33:00,89.1,46.4,30.16,NW,309,0.0,2.9,23,-99.99,,,-99.99,meteobridge,2014-08-28 19:33:00,
2014-08-28 12:34:00,88.9,46.2,30.16,WNW,301,6.0,6.9,23,-99.99,,,-99.99,meteobridge,2014-08-28 19:34:00,
2014-08-28 12:35:00,88.9,46.2,30.16,NNW,335,2.9,6.9,23,-99.99,,,-99.99,meteobridge,2014-08-28 19:35:00,
2014-08-28 12:37:00,88.7,46.2,30.16,WNW,285,2.0,4.9,23,-99.99,,,-99.99,meteobridge,2014-08-28 19:37:00,
2014-08-28 12:38:00,88.7,46.2,30.16,NW,313,2.0,4.0,23,-99.99,,,-99.99,meteobridge,2014-08-28 19:38:00,
2014-08-28 12:39:00,88.7,46.2,30.16,NW,323,2.0,4.0,23,-99.99,,,-99.99,meteobridge,2014-08-28 19:39:00,
2014-08-28 12:41:00,89.1,45.3,30.16,NNW,329,2.9,4.9,22,-99.99,,,-99.99,meteobridge,2014-08-28 19:41:00,
2014-08-28 12:42:00,88.7,45.0,30.16,NW,326,2.0,4.9,22,-99.99,,,-99.99,meteobridge,2014-08-28 19:42:00,
2014-08-28 12:44:00,89.1,46.4,30.16,NW,325,0.9,2.9,23,-99.99,,,-99.99,meteobridge,2014-08-28 19:44:00,
2014-08-28 12:45:00,89.1,45.3,30.16,NW,325,0.9,2.9,22,-99.99,,,-99.99,meteobridge,2014-08-28 19:45:00,
2014-08-28 12:46:00,89.1,46.4,30.16,NW,326,2.0,2.0,23,-99.99,,,-99.99,meteobridge,2014-08-28 19:46:00,
2014-08-28 12:49:00,89.1,46.4,30.16,NW,325,0.9,2.0,23,-99.99,,,-99.99,meteobridge,2014-08-28 19:49:00,
2014-08-28 12:50:00,89.1,45.3,30.16,NNW,330,0.9,2.0,22,-99.99,,,-99.99,meteobridge,2014-08-28 19:50:00,
2014-08-28 12:51:00,89.2,45.5,30.16,NW,326,0.0,2.0,22,-99.99,,,-99.99,meteobridge,2014-08-28 19:51:00,
2014-08-28 12:52:00,89.4,45.5,30.16,NW,326,0.9,2.0,22,-99.99,,,-99.99,meteobridge,2014-08-28 19:52:00,
2014-08-28 12:54:00,89.4,46.8,30.15,NW,326,2.0,2.9,23,-99.99,,,-99.99,meteobridge,2014-08-28 19:54:00,
2014-08-28 12:55:00,89.4,45.5,30.15,NW,326,0.9,2.9,22,-99.99,,,-99.99,meteobridge,2014-08-28 19:55:00,
2014-08-28 12:56:00,89.4,45.5,30.15,NW,326,2.0,2.0,22,-99.99,,,-99.99,meteobridge,2014-08-28 19:56:00,
2014-08-28 12:57:00,89.8,45.9,30.15,NW,326,0.0,2.9,22,-99.99,,,-99.99,meteobridge,2014-08-28 19:57:00,
2014-08-28 13:00:00,90.0,46.0,30.15,NW,323,2.9,6.0,22,-99.99,,,-99.99,meteobridge,2014-08-28 20:00:00,
2014-08-28 13:02:00,89.8,45.9,30.15,NW,322,2.0,2.9,22,-99.99,,,-99.99,meteobridge,2014-08-28 20:02:00,
2014-08-28 13:04:00,89.8,45.9,30.15,NW,323,0.9,2.9,22,-99.99,,,-99.99,meteobridge,2014-08-28 20:04:00,
2014-08-28 13:06:00,89.8,45.9,30.15,NW,322,0.9,2.9,22,-99.99,,,-99.99,meteobridge,2014-08-28 20:06:00,
2014-08-28 13:07:00,90.0,46.0,30.13,NW,320,0.0,2.9,22,-99.99,,,-99.99,meteobridge,2014-08-28 20:07:00,
2014-08-28 13:09:00,89.8,45.9,30.13,NW,316,0.0,4.9,22,-99.99,,,-99.99,meteobridge,2014-08-28 20:09:00,
2014-08-28 13:11:00,90.0,46.0,30.13,WNW,298,4.9,6.9,22,-99.99,,,-99.99,meteobridge,2014-08-28 20:11:00,
2014-08-28 13:12:00,89.8,45.9,30.13,WNW,298,0.9,8.1,22,-99.99,,,-99.99,meteobridge,2014-08-28 20:12:00,
2014-08-28 13:13:00,89.8,45.9,30.13,WNW,298,0.0,8.1,22,-99.99,,,-99.99,meteobridge,2014-08-28 20:13:00,
2014-08-28 13:14:00,89.8,45.9,30.13,NW,320,2.9,6.0,22,-99.99,,,-99.99,meteobridge,2014-08-28 20:14:00,
2014-08-28 13:16:00,90.0,44.8,30.13,NW,319,2.0,4.9,21,-99.99,,,-99.99,meteobridge,2014-08-28 20:16:00,
2014-08-28 13:17:00,89.6,44.4,30.13,NW,315,2.0,4.9,21,-99.99,,,-99.99,meteobridge,2014-08-28 20:17:00,
2014-08-28 13:19:00,89.4,45.5,30.13,NW,323,0.0,4.0,22,-99.99,,,-99.99,meteobridge,2014-08-28 20:19:00,
2014-08-28 13:20:00,90.0,44.8,30.13,NW,325,0.9,2.9,21,-99.99,,,-99.99,meteobridge,2014-08-28 20:20:00,
2014-08-28 13:22:00,89.8,44.6,30.13,NW,323,0.0,2.0,21,-99.99,,,-99.99,meteobridge,2014-08-28 20:22:00,
2014-08-28 13:23:00,89.8,45.9,30.12,WNW,287,4.0,8.1,22,-99.99,,,-99.99,meteobridge,2014-08-28 20:23:00,
2014-08-28 13:25:00,90.0,46.0,30.12,WNW,291,0.9,6.0,22,-99.99,,,-99.99,meteobridge,2014-08-28 20:25:00,
2014-08-28 13:27:00,89.8,44.6,30.12,WNW,288,0.9,2.9,21,-99.99,,,-99.99,meteobridge,2014-08-28 20:27:00,
2014-08-28 13:29:00,90.0,46.0,30.12,WNW,288,0.0,2.0,22,-99.99,,,-99.99,meteobridge,2014-08-28 20:29:00,
2014-08-28 13:31:00,90.0,46.0,30.12,WNW,288,0.9,2.0,22,-99.99,,,-99.99,meteobridge,2014-08-28 20:31:00,
2014-08-28 13:32:00,90.3,46.4,30.12,NW,316,2.0,2.9,22,-99.99,,,-99.99,meteobridge,2014-08-28 20:32:00,
2014-08-28 13:33:00,90.3,46.4,30.12,NW,315,4.0,4.9,22,-99.99,,,-99.99,meteobridge,2014-08-28 20:33:00,
2014-08-28 13:36:00,90.3,45.1,30.12,NW,316,2.0,4.9,21,-99.99,,,-99.99,meteobridge,2014-08-28 20:36:00,
2014-08-28 13:38:00,90.1,46.2,30.12,NW,313,0.9,2.9,22,-99.99,,,-99.99,meteobridge,2014-08-28 20:38:00,
2014-08-28 13:39:00,90.1,45.0,30.12,NW,313,0.9,2.9,21,-99.99,,,-99.99,meteobridge,2014-08-28 20:39:00,
2014-08-28 13:41:00,90.1,46.2,30.12,NW,313,0.9,2.9,22,-99.99,,,-99.99,meteobridge,2014-08-28 20:41:00,
2014-08-28 13:43:00,90.5,45.3,30.12,NW,313,2.9,2.9,21,-99.99,,,-99.99,meteobridge,2014-08-28 20:43:00,
2014-08-28 13:44:00,90.3,45.1,30.12,NW,313,4.0,4.9,21,-99.99,,,-99.99,meteobridge,2014-08-28 20:44:00,
2014-08-28 13:46:00,90.5,45.3,30.12,WSW,253,4.9,4.9,21,-99.99,,,-99.99,meteobridge,2014-08-28 20:46:00,
2014-08-28 13:47:00,90.5,45.3,30.12,NW,308,4.9,6.9,21,-99.99,,,-99.99,meteobridge,2014-08-28 20:47:00,
2014-08-28 13:48:00,90.3,45.1,30.12,NW,315,4.9,6.9,21,-99.99,,,-99.99,meteobridge,2014-08-28 20:48:00,
2014-08-28 13:50:00,90.3,45.1,30.12,NNW,328,2.9,6.0,21,-99.99,,,-99.99,meteobridge,2014-08-28 20:50:00,
2014-08-28 13:51:00,90.3,46.4,30.12,NW,311,2.0,6.0,22,-99.99,,,-99.99,meteobridge,2014-08-28 20:51:00,
2014-08-28 13:52:00,90.3,46.4,30.12,WNW,287,0.9,6.9,22,-99.99,,,-99.99,meteobridge,2014-08-28 20:52:00,
2014-08-28 13:53:00,90.3,46.4,30.12,WNW,288,0.9,6.9,22,-99.99,,,-99.99,meteobridge,2014-08-28 20:53:00,
2014-08-28 13:55:00,90.5,46.4,30.12,WNW,295,0.9,4.9,22,-99.99,,,-99.99,meteobridge,2014-08-28 20:55:00,
2014-08-28 13:56:00,90.5,45.3,30.12,WNW,287,0.9,6.0,21,-99.99,,,-99.99,meteobridge,2014-08-28 20:56:00,
2014-08-28 13:58:00,90.1,45.0,30.12,NW,312,0.9,6.9,21,-99.99,,,-99.99,meteobridge,2014-08-28 20:58:00,
2014-08-28 14:01:00,90.1,45.0,30.12,NW,313,0.9,2.9,21,-99.99,,,-99.99,meteobridge,2014-08-28 21:01:00,
2014-08-28 14:02:00,90.1,45.0,30.12,NW,315,2.9,2.9,21,-99.99,,,-99.99,meteobridge,2014-08-28 21:02:00,
2014-08-28 14:03:00,90.1,46.2,30.12,NW,313,0.9,2.9,22,-99.99,,,-99.99,meteobridge,2014-08-28 21:03:00,
2014-08-28 14:04:00,90.3,46.4,30.12,NW,313,0.9,2.9,22,-99.99,,,-99.99,meteobridge,2014-08-28 21:04:00,
2014-08-28 14:06:00,90.7,45.3,30.12,NW,313,2.0,2.9,21,-99.99,,,-99.99,meteobridge,2014-08-28 21:06:00,
2014-08-28 14:08:00,90.7,45.3,30.11,NW,315,2.9,6.0,21,-99.99,,,-99.99,meteobridge,2014-08-28 21:08:00,
2014-08-28 14:09:00,90.7,45.3,30.11,NW,311,2.0,6.0,21,-99.99,,,-99.99,meteobridge,2014-08-28 21:09:00,
2014-08-28 14:10:00,90.7,46.6,30.11,NW,311,0.9,6.0,22,-99.99,,,-99.99,meteobridge,2014-08-28 21:10:00,
2014-08-28 14:11:00,90.7,45.3,30.11,NW,309,0.0,4.9,21,-99.99,,,-99.99,meteobridge,2014-08-28 21:11:00,
2014-08-28 14:12:00,90.7,45.3,30.11,NW,311,2.0,2.0,21,-99.99,,,-99.99,meteobridge,2014-08-28 21:12:00,
2014-08-28 14:13:00,90.7,45.3,30.11,NW,311,0.0,2.0,21,-99.99,,,-99.99,meteobridge,2014-08-28 21:13:00,
2014-08-28 14:15:00,90.9,45.5,30.11,North,0,2.0,4.9,21,-99.99,,,-99.99,meteobridge,2014-08-28 21:15:00,
2014-08-28 14:16:00,90.9,45.5,30.11,NW,309,4.9,4.9,21,-99.99,,,-99.99,meteobridge,2014-08-28 21:16:00,
2014-08-28 14:18:00,90.9,45.5,30.11,North,350,0.9,6.0,21,-99.99,,,-99.99,meteobridge,2014-08-28 21:18:00,
2014-08-28 14:20:00,91.0,45.7,30.11,West,278,4.9,10.1,21,-99.99,,,-99.99,meteobridge,2014-08-28 21:20:00,
2014-08-28 14:21:00,90.7,44.1,30.11,WNW,282,2.0,10.1,20,-99.99,,,-99.99,meteobridge,2014-08-28 21:21:00,
2014-08-28 14:22:00,90.7,44.1,30.11,NW,306,0.9,6.9,20,-99.99,,,-99.99,meteobridge,2014-08-28 21:22:00,
2014-08-28 14:23:00,90.7,44.1,30.10,NW,308,2.0,4.9,20,-99.99,,,-99.99,meteobridge,2014-08-28 21:23:00,
2014-08-28 14:24:00,90.7,44.1,30.10,NW,308,2.0,4.9,20,-99.99,,,-99.99,meteobridge,2014-08-28 21:24:00,
2014-08-28 14:25:00,90.9,44.2,30.10,NW,308,0.9,2.9,20,-99.99,,,-99.99,meteobridge,2014-08-28 21:25:00,
2014-08-28 14:26:00,91.0,45.7,30.10,NNW,329,0.9,4.0,21,-99.99,,,-99.99,meteobridge,2014-08-28 21:26:00,
2014-08-28 14:27:00,90.9,45.5,30.10,NW,323,0.9,4.0,21,-99.99,,,-99.99,meteobridge,2014-08-28 21:27:00,
2014-08-28 14:29:00,90.9,44.2,30.10,NW,320,0.9,4.0,20,-99.99,,,-99.99,meteobridge,2014-08-28 21:29:00,
2014-08-28 14:30:00,91.0,44.4,30.10,NW,322,0.9,2.9,20,-99.99,,,-99.99,meteobridge,2014-08-28 21:30:00,
2014-08-28 14:32:00,91.0,44.4,30.10,NW,322,2.0,2.0,20,-99.99,,,-99.99,meteobridge,2014-08-28 21:32:00,
2014-08-28 14:33:00,91.2,45.9,30.10,WNW,296,2.9,8.1,21,-99.99,,,-99.99,meteobridge,2014-08-28 21:33:00,
2014-08-28 14:35:00,91.2,45.9,30.10,WNW,291,4.9,10.1,21,-99.99,,,-99.99,meteobridge,2014-08-28 21:35:00,
2014-08-28 14:36:00,90.9,45.5,30.10,NW,304,2.9,10.1,21,-99.99,,,-99.99,meteobridge,2014-08-28 21:36:00,
2014-08-28 14:37:00,90.9,45.5,30.10,NNE,27,2.0,8.1,21,-99.99,,,-99.99,meteobridge,2014-08-28 21:37:00,
2014-08-28 14:38:00,91.0,44.4,30.09,NNE,31,0.0,8.1,20,-99.99,,,-99.99,meteobridge,2014-08-28 21:38:00,
2014-08-28 14:41:00,91.0,45.7,30.09,North,356,2.0,4.9,21,-99.99,,,-99.99,meteobridge,2014-08-28 21:41:00,
2014-08-28 14:42:00,91.2,45.9,30.09,NW,306,2.0,6.9,21,-99.99,,,-99.99,meteobridge,2014-08-28 21:42:00,
2014-08-28 14:44:00,91.0,45.7,30.09,NNW,336,2.9,4.9,21,-99.99,,,-99.99,meteobridge,2014-08-28 21:44:00,
2014-08-28 14:46:00,91.0,45.7,30.09,NW,319,2.0,4.9,21,-99.99,,,-99.99,meteobridge,2014-08-28 21:46:00,
2014-08-28 14:47:00,91.0,45.7,30.09,NW,318,2.0,4.9,21,-99.99,,,-99.99,meteobridge,2014-08-28 21:47:00,
2014-08-28 14:48:00,91.0,45.7,30.09,NW,319,2.9,6.0,21,-99.99,,,-99.99,meteobridge,2014-08-28 21:48:00,
2014-08-28 14:50:00,90.9,45.5,30.09,NW,304,0.9,6.9,21,-99.99,,,-99.99,meteobridge,2014-08-28 21:50:00,
2014-08-28 14:52:00,90.7,45.3,30.09,NW,318,2.0,4.9,21,-99.99,,,-99.99,meteobridge,2014-08-28 21:52:00,
2014-08-28 14:53:00,90.7,45.3,30.09,NW,319,4.9,6.0,21,-99.99,,,-99.99,meteobridge,2014-08-28 21:53:00,
2014-08-28 14:54:00,90.7,45.3,30.09,NW,323,2.9,6.0,21,-99.99,,,-99.99,meteobridge,2014-08-28 21:54:00,
2014-08-28 14:55:00,90.7,45.3,30.09,NW,319,2.0,6.0,21,-99.99,,,-99.99,meteobridge,2014-08-28 21:55:00,
2014-08-28 14:58:00,90.7,45.3,30.09,NNW,328,0.9,6.0,21,-99.99,,,-99.99,meteobridge,2014-08-28 21:58:00,
2014-08-28 14:59:00,90.7,44.1,30.09,NW,311,2.0,6.0,20,-99.99,,,-99.99,meteobridge,2014-08-28 21:59:00,
2014-08-28 15:01:00,90.5,43.9,30.09,NW,319,0.0,6.0,20,-99.99,,,-99.99,meteobridge,2014-08-28 22:01:00,
2014-08-28 15:04:00,90.5,45.3,30.09,NW,305,0.0,4.9,21,-99.99,,,-99.99,meteobridge,2014-08-28 22:04:00,
2014-08-28 15:05:00,90.3,45.1,30.09,NW,305,0.9,2.9,21,-99.99,,,-99.99,meteobridge,2014-08-28 22:05:00,
2014-08-28 15:06:00,90.3,43.9,30.09,NW,311,2.0,2.9,20,-99.99,,,-99.99,meteobridge,2014-08-28 22:06:00,
2014-08-28 15:09:00,90.5,43.9,30.10,WNW,302,2.0,2.9,20,-99.99,,,-99.99,meteobridge,2014-08-28 22:09:00,
2014-08-28 15:10:00,90.5,43.9,30.10,NW,304,2.0,2.9,20,-99.99,,,-99.99,meteobridge,2014-08-28 22:10:00,
2014-08-28 15:11:00,90.3,45.1,30.10,WNW,302,0.9,2.9,21,-99.99,,,-99.99,meteobridge,2014-08-28 22:11:00,
2014-08-28 15:14:00,90.7,44.1,30.10,NW,308,2.0,2.0,20,-99.99,,,-99.99,meteobridge,2014-08-28 22:14:00,
2014-08-28 15:15:00,90.7,42.8,30.10,NW,304,0.9,2.9,19,-99.99,,,-99.99,meteobridge,2014-08-28 22:15:00,
2014-08-28 15:16:00,90.7,44.1,30.10,WNW,302,0.9,2.9,20,-99.99,,,-99.99,meteobridge,2014-08-28 22:16:00,
2014-08-28 15:17:00,90.7,44.1,30.10,SW,230,4.9,6.0,20,-99.99,,,-99.99,meteobridge,2014-08-28 22:17:00,
2014-08-28 15:20:00,90.7,44.1,30.10,South,189,0.0,6.9,20,-99.99,,,-99.99,meteobridge,2014-08-28 22:20:00,
2014-08-28 15:21:00,90.7,44.1,30.10,South,188,0.9,6.9,20,-99.99,,,-99.99,meteobridge,2014-08-28 22:21:00,
2014-08-28 15:22:00,90.7,44.1,30.08,South,188,0.0,2.9,20,-99.99,,,-99.99,meteobridge,2014-08-28 22:22:00,
2014-08-28 15:23:00,90.7,44.1,30.08,SW,234,0.9,6.0,20,-99.99,,,-99.99,meteobridge,2014-08-28 22:23:00,
2014-08-28 15:25:00,90.7,45.3,30.08,West,275,0.9,2.9,21,-99.99,,,-99.99,meteobridge,2014-08-28 22:25:00,
2014-08-28 15:26:00,90.9,44.2,30.08,SW,224,0.9,2.9,20,-99.99,,,-99.99,meteobridge,2014-08-28 22:26:00,
2014-08-28 15:27:00,91.0,45.7,30.08,SW,234,0.0,2.9,21,-99.99,,,-99.99,meteobridge,2014-08-28 22:27:00,
2014-08-28 15:28:00,91.0,45.7,30.08,SW,224,2.0,2.9,21,-99.99,,,-99.99,meteobridge,2014-08-28 22:28:00,
2014-08-28 15:29:00,90.9,45.5,30.08,SW,226,2.0,2.0,21,-99.99,,,-99.99,meteobridge,2014-08-28 22:29:00,
2014-08-28 15:31:00,91.0,44.4,30.08,SW,229,0.0,2.0,20,-99.99,,,-99.99,meteobridge,2014-08-28 22:31:00,
2014-08-28 15:32:00,90.9,44.2,30.08,SW,227,0.0,2.0,20,-99.99,,,-99.99,meteobridge,2014-08-28 22:32:00,
2014-08-28 15:35:00,90.9,45.5,30.08,SW,232,0.0,2.9,21,-99.99,,,-99.99,meteobridge,2014-08-28 22:35:00,
2014-08-28 15:36:00,90.9,45.5,30.08,SW,224,0.0,0.0,21,-99.99,,,-99.99,meteobridge,2014-08-28 22:36:00,
2014-08-28 15:37:00,90.9,44.2,30.08,SW,226,2.0,2.9,20,-99.99,,,-99.99,meteobridge,2014-08-28 22:37:00,
2014-08-28 15:38:00,90.9,44.2,30.08,SW,234,2.0,2.9,20,-99.99,,,-99.99,meteobridge,2014-08-28 22:38:00,
2014-08-28 15:40:00,90.9,44.2,30.08,WSW,241,2.0,4.0,20,-99.99,,,-99.99,meteobridge,2014-08-28 22:40:00,
2014-08-28 15:41:00,90.9,45.5,30.08,WNW,292,2.9,4.0,21,-99.99,,,-99.99,meteobridge,2014-08-28 22:41:00,
2014-08-28 15:42:00,90.9,44.2,30.08,SW,233,2.0,2.9,20,-99.99,,,-99.99,meteobridge,2014-08-28 22:42:00,
2014-08-28 15:44:00,90.9,44.2,30.08,WSW,254,2.9,2.9,20,-99.99,,,-99.99,meteobridge,2014-08-28 22:44:00,
2014-08-28 15:46:00,90.7,45.3,30.08,WSW,258,2.0,2.9,21,-99.99,,,-99.99,meteobridge,2014-08-28 22:46:00,
2014-08-28 15:47:00,90.3,43.9,30.08,West,265,2.0,6.0,20,-99.99,,,-99.99,meteobridge,2014-08-28 22:47:00,
2014-08-28 15:48:00,90.3,43.9,30.08,West,264,0.0,4.9,20,-99.99,,,-99.99,meteobridge,2014-08-28 22:48:00,
2014-08-28 15:49:00,90.3,43.9,30.08,West,264,2.0,2.9,20,-99.99,,,-99.99,meteobridge,2014-08-28 22:49:00,
2014-08-28 15:51:00,90.1,45.0,30.08,West,265,0.0,2.0,21,-99.99,,,-99.99,meteobridge,2014-08-28 22:51:00,
2014-08-28 15:53:00,90.3,45.1,30.08,WNW,298,2.9,2.9,21,-99.99,,,-99.99,meteobridge,2014-08-28 22:53:00,
2014-08-28 15:54:00,90.3,45.1,30.08,WNW,295,0.0,2.9,21,-99.99,,,-99.99,meteobridge,2014-08-28 22:54:00,
2014-08-28 15:55:00,90.3,45.1,30.08,WNW,295,0.0,0.9,21,-99.99,,,-99.99,meteobridge,2014-08-28 22:55:00,
2014-08-28 15:59:00,90.0,44.8,30.08,WNW,295,0.9,2.0,21,-99.99,,,-99.99,meteobridge,2014-08-28 22:59:00,
2014-08-28 16:00:00,90.0,44.8,30.08,WNW,299,2.0,2.9,21,-99.99,,,-99.99,meteobridge,2014-08-28 23:00:00,
2014-08-28 16:04:00,89.4,44.4,30.08,WNW,299,2.0,6.9,21,-99.99,,,-99.99,meteobridge,2014-08-28 23:04:00,
2014-08-28 16:05:00,89.4,44.4,30.08,WNW,299,2.9,6.9,21,-99.99,,,-99.99,meteobridge,2014-08-28 23:05:00,
2014-08-28 16:06:00,89.4,44.4,30.08,WNW,299,2.0,6.9,21,-99.99,,,-99.99,meteobridge,2014-08-28 23:06:00,
2014-08-28 16:08:00,89.4,44.4,30.08,WNW,299,0.9,4.9,21,-99.99,,,-99.99,meteobridge,2014-08-28 23:08:00,
2014-08-28 16:10:00,89.4,44.4,30.08,WNW,299,0.0,2.9,21,-99.99,,,-99.99,meteobridge,2014-08-28 23:10:00,
2014-08-28 16:11:00,89.2,44.2,30.08,WNW,299,2.0,2.0,21,-99.99,,,-99.99,meteobridge,2014-08-28 23:11:00,
2014-08-28 16:13:00,89.2,44.2,30.08,WNW,299,0.0,0.9,21,-99.99,,,-99.99,meteobridge,2014-08-28 23:13:00,
2014-08-28 16:15:00,89.1,44.1,30.08,WNW,299,2.9,6.0,21,-99.99,,,-99.99,meteobridge,2014-08-28 23:15:00,
2014-08-28 16:17:00,88.9,43.9,30.08,WNW,299,0.0,0.0,21,-99.99,,,-99.99,meteobridge,2014-08-28 23:17:00,
2014-08-28 16:19:00,88.9,43.9,30.08,WNW,299,0.0,0.0,21,-99.99,,,-99.99,meteobridge,2014-08-28 23:19:00,
2014-08-28 16:21:00,88.7,43.7,30.08,WNW,299,0.0,0.0,21,-99.99,,,-99.99,meteobridge,2014-08-28 23:21:00,
2014-08-28 16:22:00,88.9,43.9,30.07,WNW,299,0.9,0.9,21,-99.99,,,-99.99,meteobridge,2014-08-28 23:22:00,
2014-08-28 16:23:00,88.9,43.9,30.07,WNW,299,2.0,2.0,21,-99.99,,,-99.99,meteobridge,2014-08-28 23:23:00,
2014-08-28 16:24:00,88.5,43.5,30.07,WNW,299,0.0,2.0,21,-99.99,,,-99.99,meteobridge,2014-08-28 23:24:00,
2014-08-28 16:27:00,88.3,43.5,30.07,WNW,299,0.0,2.0,21,-99.99,,,-99.99,meteobridge,2014-08-28 23:27:00,
2014-08-28 16:28:00,88.3,43.5,30.07,WNW,299,0.0,0.9,21,-99.99,,,-99.99,meteobridge,2014-08-28 23:28:00,
2014-08-28 16:31:00,88.3,45.9,30.07,WNW,299,0.0,0.0,23,-99.99,,,-99.99,meteobridge,2014-08-28 23:31:00,
2014-08-28 16:33:00,88.2,45.7,30.07,WNW,299,0.0,0.0,23,-99.99,,,-99.99,meteobridge,2014-08-28 23:33:00,
2014-08-28 16:34:00,88.2,45.7,30.07,WNW,299,0.0,0.0,23,-99.99,,,-99.99,meteobridge,2014-08-28 23:34:00,
2014-08-28 16:36:00,88.2,45.7,30.07,WNW,299,0.0,0.0,23,-99.99,,,-99.99,meteobridge,2014-08-28 23:36:00,
2014-08-28 16:37:00,88.0,46.6,30.09,WNW,299,0.0,0.0,24,-99.99,,,-99.99,meteobridge,2014-08-28 23:37:00,
2014-08-28 16:40:00,88.0,46.6,30.09,WNW,299,0.0,0.0,24,-99.99,,,-99.99,meteobridge,2014-08-28 23:40:00,
2014-08-28 16:41:00,87.8,46.6,30.09,WNW,301,0.9,2.0,24,-99.99,,,-99.99,meteobridge,2014-08-28 23:41:00,
2014-08-28 16:42:00,87.8,44.2,30.09,WNW,301,0.0,2.0,22,-99.99,,,-99.99,meteobridge,2014-08-28 23:42:00,
2014-08-28 16:43:00,87.6,44.1,30.09,WNW,301,0.0,2.0,22,-99.99,,,-99.99,meteobridge,2014-08-28 23:43:00,
2014-08-28 16:44:00,87.6,44.1,30.09,WNW,299,0.0,0.0,22,-99.99,,,-99.99,meteobridge,2014-08-28 23:44:00,
2014-08-28 16:45:00,87.8,44.2,30.09,WNW,299,0.0,0.0,22,-99.99,,,-99.99,meteobridge,2014-08-28 23:45:00,
2014-08-28 16:48:00,87.4,43.9,30.09,WNW,299,0.0,0.9,22,-99.99,,,-99.99,meteobridge,2014-08-28 23:48:00,
2014-08-28 16:49:00,87.4,43.9,30.09,WNW,299,0.0,0.0,22,-99.99,,,-99.99,meteobridge,2014-08-28 23:49:00,
2014-08-28 16:51:00,87.4,43.9,30.09,WNW,299,0.0,0.0,22,-99.99,,,-99.99,meteobridge,2014-08-28 23:51:00,
2014-08-28 16:53:00,87.4,45.1,30.09,WNW,302,0.0,0.0,23,-99.99,,,-99.99,meteobridge,2014-08-28 23:53:00,
2014-08-28 16:54:00,87.4,45.1,30.09,WNW,302,0.0,0.0,23,-99.99,,,-99.99,meteobridge,2014-08-28 23:54:00,
2014-08-28 16:56:00,87.3,45.0,30.09,WNW,302,0.0,0.0,23,-99.99,,,-99.99,meteobridge,2014-08-28 23:56:00,
2014-08-28 16:57:00,87.3,46.0,30.09,WNW,302,0.0,0.0,24,-99.99,,,-99.99,meteobridge,2014-08-28 23:57:00,
2014-08-28 16:59:00,87.3,46.0,30.09,WNW,302,0.0,0.0,24,-99.99,,,-99.99,meteobridge,2014-08-28 23:59:00,
2014-08-28 17:00:00,87.4,46.2,30.09,WNW,302,0.0,0.0,24,-99.99,,,-99.99,meteobridge,2014-08-29 00:00:00,
2014-08-28 17:02:00,87.4,47.3,30.09,WNW,299,0.0,0.0,25,-99.99,,,-99.99,meteobridge,2014-08-29 00:02:00,
2014-08-28 17:05:00,87.4,45.1,30.09,WNW,299,0.0,0.0,23,-99.99,,,-99.99,meteobridge,2014-08-29 00:05:00,
2014-08-28 17:06:00,87.6,45.3,30.09,WNW,299,0.0,0.0,23,-99.99,,,-99.99,meteobridge,2014-08-29 00:06:00,
2014-08-28 17:07:00,87.4,45.1,30.09,WNW,299,0.0,0.0,23,-99.99,,,-99.99,meteobridge,2014-08-29 00:07:00,
2014-08-28 17:08:00,87.4,43.9,30.09,WNW,299,0.0,0.0,22,-99.99,,,-99.99,meteobridge,2014-08-29 00:08:00,
2014-08-28 17:10:00,87.6,45.3,30.09,WNW,299,0.0,2.9,23,-99.99,,,-99.99,meteobridge,2014-08-29 00:10:00,
2014-08-28 17:11:00,87.6,45.3,30.09,WNW,299,0.0,2.9,23,-99.99,,,-99.99,meteobridge,2014-08-29 00:11:00,
2014-08-28 17:12:00,87.6,44.1,30.09,WNW,299,0.0,2.0,22,-99.99,,,-99.99,meteobridge,2014-08-29 00:12:00,
2014-08-28 17:13:00,87.6,44.1,30.09,WNW,299,0.0,2.0,22,-99.99,,,-99.99,meteobridge,2014-08-29 00:13:00,
2014-08-28 17:16:00,87.6,45.3,30.09,WNW,299,0.0,0.9,23,-99.99,,,-99.99,meteobridge,2014-08-29 00:16:00,
2014-08-28 17:17:00,87.6,45.3,30.09,WNW,299,0.0,0.0,23,-99.99,,,-99.99,meteobridge,2014-08-29 00:17:00,
2014-08-28 17:19:00,87.6,44.1,30.09,WNW,299,0.0,0.0,22,-99.99,,,-99.99,meteobridge,2014-08-29 00:19:00,
2014-08-28 17:21:00,87.6,42.8,30.09,WNW,299,0.0,0.0,21,-99.99,,,-99.99,meteobridge,2014-08-29 00:21:00,
2014-08-28 17:22:00,88.0,43.2,30.09,WNW,299,0.0,0.0,21,-99.99,,,-99.99,meteobridge,2014-08-29 00:22:00,
2014-08-28 17:25:00,88.0,44.4,30.09,WNW,299,0.0,0.0,22,-99.99,,,-99.99,meteobridge,2014-08-29 00:25:00,
2014-08-28 17:26:00,88.0,44.4,30.09,WNW,301,0.0,0.0,22,-99.99,,,-99.99,meteobridge,2014-08-29 00:26:00,
2014-08-28 17:27:00,88.0,44.4,30.09,WNW,299,0.0,0.9,22,-99.99,,,-99.99,meteobridge,2014-08-29 00:27:00,
2014-08-28 17:30:00,88.0,44.4,30.09,WNW,301,0.0,0.0,22,-99.99,,,-99.99,meteobridge,2014-08-29 00:30:00,
2014-08-28 17:32:00,88.0,44.4,30.09,WNW,301,0.0,0.0,22,-99.99,,,-99.99,meteobridge,2014-08-29 00:32:00,
2014-08-28 17:33:00,88.2,44.6,30.09,WNW,299,0.0,0.0,22,-99.99,,,-99.99,meteobridge,2014-08-29 00:33:00,
2014-08-28 17:34:00,88.2,43.3,30.09,WNW,299,0.0,0.0,21,-99.99,,,-99.99,meteobridge,2014-08-29 00:34:00,
2014-08-28 17:37:00,88.2,43.3,30.09,WNW,299,0.9,2.0,21,-99.99,,,-99.99,meteobridge,2014-08-29 00:37:00,
2014-08-28 17:38:00,88.2,43.3,30.09,WNW,299,2.0,2.0,21,-99.99,,,-99.99,meteobridge,2014-08-29 00:38:00,
2014-08-28 17:39:00,88.2,43.3,30.09,WNW,299,0.0,2.0,21,-99.99,,,-99.99,meteobridge,2014-08-29 00:39:00,
2014-08-28 17:40:00,88.2,44.6,30.09,WNW,299,0.0,0.9,22,-99.99,,,-99.99,meteobridge,2014-08-29 00:40:00,
2014-08-28 17:43:00,88.2,46.8,30.09,WNW,301,2.0,2.0,24,-99.99,,,-99.99,meteobridge,2014-08-29 00:43:00,
2014-08-28 17:44:00,88.2,46.8,30.09,NW,319,0.9,2.0,24,-99.99,,,-99.99,meteobridge,2014-08-29 00:44:00,
2014-08-28 17:45:00,88.2,46.8,30.09,East,88,4.9,6.0,24,-99.99,,,-99.99,meteobridge,2014-08-29 00:45:00,
2014-08-28 17:48:00,88.2,47.8,30.09,ESE,116,2.9,4.9,25,-99.99,,,-99.99,meteobridge,2014-08-29 00:48:00,
2014-08-28 17:49:00,88.2,47.8,30.09,SSE,158,0.9,4.9,25,-99.99,,,-99.99,meteobridge,2014-08-29 00:49:00,
2014-08-28 17:50:00,88.2,47.8,30.09,SSE,151,2.0,4.9,25,-99.99,,,-99.99,meteobridge,2014-08-29 00:50:00,
2014-08-28 17:52:00,88.2,47.8,30.08,West,265,2.9,2.9,25,-99.99,,,-99.99,meteobridge,2014-08-29 00:52:00,
2014-08-28 17:53:00,88.2,46.8,30.08,WNW,296,0.0,2.9,24,-99.99,,,-99.99,meteobridge,2014-08-29 00:53:00,
2014-08-28 17:54:00,88.2,47.8,30.08,SW,230,0.9,2.9,25,-99.99,,,-99.99,meteobridge,2014-08-29 00:54:00,
2014-08-28 17:55:00,88.2,47.8,30.08,WNW,296,2.0,2.9,25,-99.99,,,-99.99,meteobridge,2014-08-29 00:55:00,
2014-08-28 17:57:00,88.2,46.8,30.08,SSW,192,0.0,2.9,24,-99.99,,,-99.99,meteobridge,2014-08-29 00:57:00,
2014-08-28 17:59:00,88.0,46.6,30.08,WSW,239,0.9,6.9,24,-99.99,,,-99.99,meteobridge,2014-08-29 00:59:00,
2014-08-28 18:00:00,88.0,46.6,30.08,SW,219,2.0,8.1,24,-99.99,,,-99.99,meteobridge,2014-08-29 01:00:00,
2014-08-28 18:01:00,88.0,46.6,30.08,SSE,155,2.0,8.1,24,-99.99,,,-99.99,meteobridge,2014-08-29 01:01:00,
2014-08-28 18:03:00,87.8,46.6,30.08,SW,226,0.0,2.9,24,-99.99,,,-99.99,meteobridge,2014-08-29 01:03:00,
2014-08-28 18:04:00,88.0,46.6,30.08,SE,126,0.9,2.9,24,-99.99,,,-99.99,meteobridge,2014-08-29 01:04:00,
2014-08-28 18:05:00,87.6,47.5,30.08,South,176,0.9,2.9,25,-99.99,,,-99.99,meteobridge,2014-08-29 01:05:00,
2014-08-28 18:06:00,87.6,46.4,30.08,ESE,123,2.0,2.0,24,-99.99,,,-99.99,meteobridge,2014-08-29 01:06:00,
2014-08-28 18:09:00,87.6,47.5,30.08,SW,227,2.0,2.0,25,-99.99,,,-99.99,meteobridge,2014-08-29 01:09:00,
2014-08-28 18:10:00,87.6,46.4,30.08,SW,220,2.9,4.0,24,-99.99,,,-99.99,meteobridge,2014-08-29 01:10:00,
2014-08-28 18:11:00,87.8,46.6,30.08,SSE,155,0.9,6.0,24,-99.99,,,-99.99,meteobridge,2014-08-29 01:11:00,
2014-08-28 18:12:00,87.4,47.3,30.08,WSW,248,2.0,6.0,25,-99.99,,,-99.99,meteobridge,2014-08-29 01:12:00,
2014-08-28 18:14:00,87.4,47.3,30.08,South,184,2.0,2.9,25,-99.99,,,-99.99,meteobridge,2014-08-29 01:14:00,
2014-08-28 18:15:00,87.4,47.3,30.08,East,85,2.9,2.9,25,-99.99,,,-99.99,meteobridge,2014-08-29 01:15:00,
2014-08-28 18:16:00,87.3,47.1,30.08,SSE,160,2.0,2.9,25,-99.99,,,-99.99,meteobridge,2014-08-29 01:16:00,
2014-08-28 18:17:00,87.4,47.3,30.08,East,95,2.0,2.9,25,-99.99,,,-99.99,meteobridge,2014-08-29 01:17:00,
2014-08-28 18:21:00,87.1,46.9,30.08,NNW,332,2.0,4.9,25,-99.99,,,-99.99,meteobridge,2014-08-29 01:21:00,
2014-08-28 18:22:00,87.3,47.1,30.08,SE,130,0.9,4.0,25,-99.99,,,-99.99,meteobridge,2014-08-29 01:22:00,
2014-08-28 18:23:00,87.1,46.9,30.09,ESE,119,0.9,2.0,25,-99.99,,,-99.99,meteobridge,2014-08-29 01:23:00,
2014-08-28 18:26:00,86.9,46.8,30.09,SW,217,2.0,6.9,25,-99.99,,,-99.99,meteobridge,2014-08-29 01:26:00,
2014-08-28 18:27:00,87.1,46.9,30.09,WNW,284,2.9,6.9,25,-99.99,,,-99.99,meteobridge,2014-08-29 01:27:00,
2014-08-28 18:28:00,86.7,46.8,30.09,North,0,2.0,8.1,25,-99.99,,,-99.99,meteobridge,2014-08-29 01:28:00,
2014-08-28 18:29:00,86.7,46.8,30.09,WSW,256,0.9,4.0,25,-99.99,,,-99.99,meteobridge,2014-08-29 01:29:00,
2014-08-28 18:31:00,86.5,46.6,30.09,NW,308,0.0,6.9,25,-99.99,,,-99.99,meteobridge,2014-08-29 01:31:00,
2014-08-28 18:33:00,86.5,46.6,30.09,North,354,2.0,6.0,25,-99.99,,,-99.99,meteobridge,2014-08-29 01:33:00,
2014-08-28 18:34:00,86.5,46.6,30.09,WSW,250,0.9,4.9,25,-99.99,,,-99.99,meteobridge,2014-08-29 01:34:00,
2014-08-28 18:35:00,86.4,46.4,30.09,South,171,0.9,2.9,25,-99.99,,,-99.99,meteobridge,2014-08-29 01:35:00,
2014-08-28 18:36:00,86.5,47.7,30.09,SSE,158,2.0,2.9,26,-99.99,,,-99.99,meteobridge,2014-08-29 01:36:00,
2014-08-28 18:38:00,86.2,46.2,30.09,North,350,2.0,6.0,25,-99.99,,,-99.99,meteobridge,2014-08-29 01:38:00,
2014-08-28 18:39:00,86.4,46.4,30.09,WSW,256,2.0,4.9,25,-99.99,,,-99.99,meteobridge,2014-08-29 01:39:00,
2014-08-28 18:40:00,86.0,46.0,30.09,North,350,0.9,4.9,25,-99.99,,,-99.99,meteobridge,2014-08-29 01:40:00,
2014-08-28 18:41:00,86.2,46.2,30.09,North,0,2.9,2.9,25,-99.99,,,-99.99,meteobridge,2014-08-29 01:41:00,
2014-08-28 18:42:00,86.2,47.3,30.09,North,354,0.9,6.9,26,-99.99,,,-99.99,meteobridge,2014-08-29 01:42:00,
2014-08-28 18:44:00,85.8,46.9,30.09,NE,52,0.9,6.0,26,-99.99,,,-99.99,meteobridge,2014-08-29 01:44:00,
2014-08-28 18:45:00,85.8,46.9,30.09,NE,49,2.9,6.0,26,-99.99,,,-99.99,meteobridge,2014-08-29 01:45:00,
2014-08-28 18:46:00,85.6,46.8,30.09,East,100,2.9,2.9,26,-99.99,,,-99.99,meteobridge,2014-08-29 01:46:00,
2014-08-28 18:47:00,85.6,46.8,30.09,WSW,256,6.0,6.0,26,-99.99,,,-99.99,meteobridge,2014-08-29 01:47:00,
2014-08-28 18:48:00,85.5,45.7,30.09,South,175,2.9,13.0,25,-99.99,,,-99.99,meteobridge,2014-08-29 01:48:00,
2014-08-28 18:50:00,85.5,45.7,30.09,North,0,2.9,6.9,25,-99.99,,,-99.99,meteobridge,2014-08-29 01:50:00,
2014-08-28 18:51:00,85.3,45.5,30.09,North,0,0.9,6.9,25,-99.99,,,-99.99,meteobridge,2014-08-29 01:51:00,
2014-08-28 18:52:00,85.3,45.5,30.09,North,0,0.9,6.9,25,-99.99,,,-99.99,meteobridge,2014-08-29 01:52:00,
2014-08-28 18:53:00,84.9,45.1,30.10,WNW,299,2.0,6.0,25,-99.99,,,-99.99,meteobridge,2014-08-29 01:53:00,
2014-08-28 18:56:00,84.7,45.0,30.10,ESE,117,0.9,4.9,25,-99.99,,,-99.99,meteobridge,2014-08-29 01:56:00,
2014-08-28 18:57:00,84.7,45.0,30.10,North,352,6.0,6.0,25,-99.99,,,-99.99,meteobridge,2014-08-29 01:57:00,
2014-08-28 18:58:00,84.6,45.0,30.10,ESE,107,10.1,10.1,25,-99.99,,,-99.99,meteobridge,2014-08-29 01:58:00,
2014-08-28 18:59:00,84.6,45.0,30.10,NW,305,2.9,10.1,25,-99.99,,,-99.99,meteobridge,2014-08-29 01:59:00,
2014-08-28 19:01:00,84.6,45.9,30.10,ESE,109,2.9,4.9,26,-99.99,,,-99.99,meteobridge,2014-08-29 02:01:00,
2014-08-28 19:02:00,84.4,44.8,30.10,SSE,160,2.9,4.9,25,-99.99,,,-99.99,meteobridge,2014-08-29 02:02:00,
2014-08-28 19:03:00,84.4,44.8,30.10,WSW,253,2.9,4.0,25,-99.99,,,-99.99,meteobridge,2014-08-29 02:03:00,
2014-08-28 19:04:00,84.2,45.7,30.10,North,0,4.9,4.9,26,-99.99,,,-99.99,meteobridge,2014-08-29 02:04:00,
2014-08-28 19:06:00,84.0,44.4,30.10,ESE,114,0.9,4.9,25,-99.99,,,-99.99,meteobridge,2014-08-29 02:06:00,
2014-08-28 19:07:00,84.0,45.5,30.11,SSE,148,2.0,4.9,26,-99.99,,,-99.99,meteobridge,2014-08-29 02:07:00,
2014-08-28 19:08:00,84.0,45.5,30.11,SSW,213,0.9,2.9,26,-99.99,,,-99.99,meteobridge,2014-08-29 02:08:00,
2014-08-28 19:09:00,84.0,44.4,30.11,SSE,160,2.9,6.0,25,-99.99,,,-99.99,meteobridge,2014-08-29 02:09:00,
2014-08-28 19:10:00,83.8,44.2,30.11,North,0,4.9,6.0,25,-99.99,,,-99.99,meteobridge,2014-08-29 02:10:00,
2014-08-28 19:12:00,83.8,44.2,30.11,North,0,2.9,4.9,25,-99.99,,,-99.99,meteobridge,2014-08-29 02:12:00,
2014-08-28 19:13:00,83.7,44.1,30.11,North,359,4.0,6.9,25,-99.99,,,-99.99,meteobridge,2014-08-29 02:13:00,
2014-08-28 19:14:00,83.5,45.0,30.11,North,353,2.0,4.9,26,-99.99,,,-99.99,meteobridge,2014-08-29 02:14:00,
2014-08-28 19:15:00,83.5,43.9,30.11,South,174,0.9,4.0,25,-99.99,,,-99.99,meteobridge,2014-08-29 02:15:00,
2014-08-28 19:17:00,83.3,43.9,30.11,NW,306,6.0,6.0,25,-99.99,,,-99.99,meteobridge,2014-08-29 02:17:00,
2014-08-28 19:18:00,83.5,43.9,30.11,SSE,168,2.9,6.0,25,-99.99,,,-99.99,meteobridge,2014-08-29 02:18:00,
2014-08-28 19:20:00,83.1,44.6,30.11,WNW,285,2.0,6.0,26,-99.99,,,-99.99,meteobridge,2014-08-29 02:20:00,
2014-08-28 19:23:00,82.9,43.5,30.13,WNW,282,0.9,4.9,25,-99.99,,,-99.99,meteobridge,2014-08-29 02:23:00,
2014-08-28 19:24:00,82.9,44.6,30.13,WSW,257,2.0,4.9,26,-99.99,,,-99.99,meteobridge,2014-08-29 02:24:00,
2014-08-28 19:25:00,82.8,44.4,30.13,West,278,2.0,4.9,26,-99.99,,,-99.99,meteobridge,2014-08-29 02:25:00,
2014-08-28 19:27:00,82.6,44.2,30.13,West,268,2.0,4.9,26,-99.99,,,-99.99,meteobridge,2014-08-29 02:27:00,
2014-08-28 19:28:00,82.6,44.2,30.13,NNW,336,4.9,4.9,26,-99.99,,,-99.99,meteobridge,2014-08-29 02:28:00,
2014-08-28 19:30:00,82.6,44.2,30.13,NW,306,2.9,4.9,26,-99.99,,,-99.99,meteobridge,2014-08-29 02:30:00,
2014-08-28 19:32:00,82.2,43.9,30.13,ESE,113,2.0,4.9,26,-99.99,,,-99.99,meteobridge,2014-08-29 02:32:00,
2014-08-28 19:33:00,82.2,43.9,30.13,ESE,114,2.0,4.9,26,-99.99,,,-99.99,meteobridge,2014-08-29 02:33:00,
2014-08-28 19:34:00,82.2,43.9,30.13,SE,127,2.0,4.9,26,-99.99,,,-99.99,meteobridge,2014-08-29 02:34:00,
2014-08-28 19:35:00,82.0,44.8,30.13,South,179,0.9,4.9,27,-99.99,,,-99.99,meteobridge,2014-08-29 02:35:00,
2014-08-28 19:36:00,82.0,44.8,30.13,NW,316,2.9,4.9,27,-99.99,,,-99.99,meteobridge,2014-08-29 02:36:00,
2014-08-28 19:37:00,81.9,44.6,30.09,South,186,2.0,2.9,27,-99.99,,,-99.99,meteobridge,2014-08-29 02:37:00,
2014-08-28 19:38:00,81.9,44.6,30.09,North,0,4.0,4.0,27,-99.99,,,-99.99,meteobridge,2014-08-29 02:38:00,
2014-08-28 19:39:00,81.9,44.6,30.09,ESE,112,2.0,6.9,27,-99.99,,,-99.99,meteobridge,2014-08-29 02:39:00,
2014-08-28 19:42:00,81.7,44.4,30.09,NW,305,4.9,4.9,27,-99.99,,,-99.99,meteobridge,2014-08-29 02:42:00,
2014-08-28 19:43:00,81.5,44.2,30.09,North,0,4.0,4.9,27,-99.99,,,-99.99,meteobridge,2014-08-29 02:43:00,
2014-08-28 19:45:00,81.5,45.3,30.09,SW,233,2.9,4.9,28,-99.99,,,-99.99,meteobridge,2014-08-29 02:45:00,
2014-08-28 19:47:00,81.3,44.1,30.09,SE,143,2.9,8.1,27,-99.99,,,-99.99,meteobridge,2014-08-29 02:47:00,
2014-08-28 19:48:00,81.3,45.1,30.09,North,0,2.0,8.1,28,-99.99,,,-99.99,meteobridge,2014-08-29 02:48:00,
2014-08-28 19:49:00,81.1,45.0,30.09,North,0,4.9,6.9,28,-99.99,,,-99.99,meteobridge,2014-08-29 02:49:00,
2014-08-28 19:50:00,81.1,45.0,30.09,WNW,296,4.9,6.9,28,-99.99,,,-99.99,meteobridge,2014-08-29 02:50:00,
2014-08-28 19:52:00,81.1,45.0,30.09,NNW,328,2.0,6.0,28,-99.99,,,-99.99,meteobridge,2014-08-29 02:52:00,
2014-08-28 19:54:00,81.0,44.8,30.09,North,0,2.0,4.9,28,-99.99,,,-99.99,meteobridge,2014-08-29 02:54:00,
2014-08-28 19:55:00,81.0,44.8,30.09,South,175,0.9,4.9,28,-99.99,,,-99.99,meteobridge,2014-08-29 02:55:00,
2014-08-28 19:56:00,81.0,43.9,30.09,North,0,2.0,4.0,27,-99.99,,,-99.99,meteobridge,2014-08-29 02:56:00,
2014-08-28 19:57:00,80.8,44.6,30.09,North,0,2.0,6.0,28,-99.99,,,-99.99,meteobridge,2014-08-29 02:57:00,
2014-08-28 19:59:00,80.6,43.5,30.09,North,0,2.9,11.0,27,-99.99,,,-99.99,meteobridge,2014-08-29 02:59:00,
2014-08-28 20:00:00,80.6,44.4,30.09,North,354,4.0,11.0,28,-99.99,,,-99.99,meteobridge,2014-08-29 03:00:00,
2014-08-28 20:01:00,80.8,43.7,30.09,East,86,4.9,8.1,27,-99.99,,,-99.99,meteobridge,2014-08-29 03:01:00,
2014-08-28 20:02:00,80.6,43.5,30.09,West,274,4.9,13.0,27,-99.99,,,-99.99,meteobridge,2014-08-29 03:02:00,
2014-08-28 20:04:00,80.4,44.2,30.09,SW,230,2.0,10.1,28,-99.99,,,-99.99,meteobridge,2014-08-29 03:04:00,
2014-08-28 20:05:00,80.4,43.3,30.09,West,271,4.9,6.9,27,-99.99,,,-99.99,meteobridge,2014-08-29 03:05:00,
2014-08-28 20:06:00,80.4,44.2,30.09,ENE,78,4.9,10.1,28,-99.99,,,-99.99,meteobridge,2014-08-29 03:06:00,
2014-08-28 20:07:00,80.4,44.2,30.09,ENE,76,4.0,10.1,28,-99.99,,,-99.99,meteobridge,2014-08-29 03:07:00,
2014-08-28 20:08:00,80.2,44.2,30.10,West,260,8.1,13.0,28,-99.99,,,-99.99,meteobridge,2014-08-29 03:08:00,
2014-08-28 20:10:00,80.2,44.2,30.10,SSW,202,2.9,6.9,28,-99.99,,,-99.99,meteobridge,2014-08-29 03:10:00,
2014-08-28 20:11:00,80.1,44.1,30.10,West,274,6.0,6.9,28,-99.99,,,-99.99,meteobridge,2014-08-29 03:11:00,
2014-08-28 20:12:00,80.1,44.1,30.10,ENE,72,2.0,6.0,28,-99.99,,,-99.99,meteobridge,2014-08-29 03:12:00,
2014-08-28 20:13:00,80.1,44.1,30.10,North,0,4.9,6.0,28,-99.99,,,-99.99,meteobridge,2014-08-29 03:13:00,
2014-08-28 20:16:00,79.9,43.9,30.10,SW,215,2.0,2.9,28,-99.99,,,-99.99,meteobridge,2014-08-29 03:16:00,
2014-08-28 20:17:00,79.9,43.9,30.10,South,186,0.9,2.9,28,-99.99,,,-99.99,meteobridge,2014-08-29 03:17:00,
2014-08-28 20:18:00,79.9,44.8,30.10,SE,145,2.0,6.0,29,-99.99,,,-99.99,meteobridge,2014-08-29 03:18:00,
2014-08-28 20:22:00,79.7,44.6,30.10,SSE,158,4.0,4.0,29,-99.99,,,-99.99,meteobridge,2014-08-29 03:22:00,
2014-08-28 20:23:00,79.5,44.4,30.11,SSW,213,2.9,4.0,29,-99.99,,,-99.99,meteobridge,2014-08-29 03:23:00,
2014-08-28 20:24:00,79.3,43.3,30.11,SSE,168,2.0,4.0,28,-99.99,,,-99.99,meteobridge,2014-08-29 03:24:00,
2014-08-28 20:27:00,79.3,43.3,30.11,SE,127,2.9,8.1,28,-99.99,,,-99.99,meteobridge,2014-08-29 03:27:00,
2014-08-28 20:28:00,79.3,43.3,30.11,SSE,162,0.0,8.1,28,-99.99,,,-99.99,meteobridge,2014-08-29 03:28:00,
2014-08-28 20:29:00,79.3,43.3,30.11,SSE,155,0.9,8.1,28,-99.99,,,-99.99,meteobridge,2014-08-29 03:29:00,
2014-08-28 20:30:00,79.2,43.2,30.11,East,99,0.9,2.0,28,-99.99,,,-99.99,meteobridge,2014-08-29 03:30:00,
2014-08-28 20:32:00,79.2,43.2,30.11,SE,140,0.0,2.0,28,-99.99,,,-99.99,meteobridge,2014-08-29 03:32:00,
2014-08-28 20:33:00,79.2,43.2,30.11,ESE,110,0.0,0.9,28,-99.99,,,-99.99,meteobridge,2014-08-29 03:33:00,
2014-08-28 20:34:00,79.0,43.2,30.11,South,186,0.9,2.0,28,-99.99,,,-99.99,meteobridge,2014-08-29 03:34:00,
2014-08-28 20:36:00,79.0,44.1,30.11,SSE,154,0.0,2.0,29,-99.99,,,-99.99,meteobridge,2014-08-29 03:36:00,
2014-08-28 20:38:00,78.8,43.0,30.09,East,86,0.0,2.0,28,-99.99,,,-99.99,meteobridge,2014-08-29 03:38:00,
2014-08-28 20:40:00,78.4,42.6,30.09,ENE,78,0.0,0.9,28,-99.99,,,-99.99,meteobridge,2014-08-29 03:40:00,
2014-08-28 20:41:00,78.6,42.8,30.09,SE,145,0.0,0.9,28,-99.99,,,-99.99,meteobridge,2014-08-29 03:41:00,
2014-08-28 20:44:00,78.3,42.4,30.09,SSW,202,0.9,2.9,28,-99.99,,,-99.99,meteobridge,2014-08-29 03:44:00,
2014-08-28 20:46:00,78.4,42.6,30.09,WSW,246,0.0,2.9,28,-99.99,,,-99.99,meteobridge,2014-08-29 03:46:00,
2014-08-28 20:47:00,78.3,41.5,30.09,North,0,2.9,6.9,27,-99.99,,,-99.99,meteobridge,2014-08-29 03:47:00,
2014-08-28 20:49:00,78.1,42.3,30.09,WSW,258,4.0,6.0,28,-99.99,,,-99.99,meteobridge,2014-08-29 03:49:00,
2014-08-28 20:50:00,78.1,43.2,30.09,North,0,2.9,6.0,29,-99.99,,,-99.99,meteobridge,2014-08-29 03:50:00,
2014-08-28 20:51:00,78.1,43.2,30.09,North,0,2.9,4.9,29,-99.99,,,-99.99,meteobridge,2014-08-29 03:51:00,
2014-08-28 20:52:00,78.1,43.2,30.09,SE,124,0.9,4.9,29,-99.99,,,-99.99,meteobridge,2014-08-29 03:52:00,
2014-08-28 20:55:00,77.9,43.2,30.11,NW,312,2.0,8.9,29,-99.99,,,-99.99,meteobridge,2014-08-29 03:55:00,
2014-08-28 20:56:00,77.9,43.2,30.11,SSE,151,2.0,8.1,29,-99.99,,,-99.99,meteobridge,2014-08-29 03:56:00,
2014-08-28 20:57:00,77.7,43.0,30.11,SSW,210,0.0,4.9,29,-99.99,,,-99.99,meteobridge,2014-08-29 03:57:00,
2014-08-28 20:58:00,77.9,43.2,30.11,ESE,117,0.9,2.9,29,-99.99,,,-99.99,meteobridge,2014-08-29 03:58:00,
2014-08-28 20:59:00,77.7,43.0,30.11,North,0,2.9,4.9,29,-99.99,,,-99.99,meteobridge,2014-08-29 03:59:00,
2014-08-28 21:01:00,77.5,42.8,30.11,North,0,6.0,6.0,29,-99.99,,,-99.99,meteobridge,2014-08-29 04:01:00,
2014-08-28 21:06:00,77.5,42.8,30.11,SW,227,2.9,10.1,29,-99.99,,,-99.99,meteobridge,2014-08-29 04:06:00,
2014-08-28 21:07:00,77.2,42.4,30.11,North,0,6.9,10.1,29,-99.99,,,-99.99,meteobridge,2014-08-29 04:07:00,
2014-08-28 21:11:00,77.2,42.4,30.11,WNW,295,2.0,8.1,29,-99.99,,,-99.99,meteobridge,2014-08-29 04:11:00,
2014-08-28 21:12:00,77.2,42.4,30.11,WSW,256,4.9,8.1,29,-99.99,,,-99.99,meteobridge,2014-08-29 04:12:00,
2014-08-28 21:13:00,77.2,42.4,30.11,NW,313,4.9,8.1,29,-99.99,,,-99.99,meteobridge,2014-08-29 04:13:00,
2014-08-28 21:17:00,76.8,42.1,30.11,SSE,168,2.9,8.1,29,-99.99,,,-99.99,meteobridge,2014-08-29 04:17:00,
2014-08-28 21:19:00,76.8,42.1,30.11,West,277,2.9,6.9,29,-99.99,,,-99.99,meteobridge,2014-08-29 04:19:00,
2014-08-28 21:20:00,76.6,42.1,30.11,North,0,4.0,6.0,29,-99.99,,,-99.99,meteobridge,2014-08-29 04:20:00,
2014-08-28 21:22:00,76.6,42.1,30.11,NNW,336,2.0,6.0,29,-99.99,,,-99.99,meteobridge,2014-08-29 04:22:00,
2014-08-28 21:24:00,76.6,42.1,30.11,North,0,4.0,8.1,29,-99.99,,,-99.99,meteobridge,2014-08-29 04:24:00,
2014-08-28 21:26:00,76.5,41.9,30.11,North,0,2.9,10.1,29,-99.99,,,-99.99,meteobridge,2014-08-29 04:26:00,
2014-08-28 21:27:00,76.5,41.9,30.11,North,0,4.0,6.9,29,-99.99,,,-99.99,meteobridge,2014-08-29 04:27:00,
2014-08-28 21:28:00,76.6,42.1,30.11,SW,229,2.9,6.9,29,-99.99,,,-99.99,meteobridge,2014-08-29 04:28:00,
2014-08-28 21:29:00,76.5,41.0,30.11,North,0,8.1,8.1,28,-99.99,,,-99.99,meteobridge,2014-08-29 04:29:00,
2014-08-28 21:31:00,76.6,41.2,30.11,North,0,2.0,8.1,28,-99.99,,,-99.99,meteobridge,2014-08-29 04:31:00,
2014-08-28 21:32:00,76.5,41.0,30.11,WSW,257,0.9,8.1,28,-99.99,,,-99.99,meteobridge,2014-08-29 04:32:00,
2014-08-28 21:33:00,76.5,41.0,30.11,North,0,4.0,8.1,28,-99.99,,,-99.99,meteobridge,2014-08-29 04:33:00,
2014-08-28 21:34:00,76.5,41.0,30.11,SSW,199,6.0,8.1,28,-99.99,,,-99.99,meteobridge,2014-08-29 04:34:00,
2014-08-28 21:37:00,76.5,41.0,30.10,North,0,2.0,6.0,28,-99.99,,,-99.99,meteobridge,2014-08-29 04:37:00,
2014-08-28 21:38:00,76.5,41.0,30.10,North,0,2.0,6.0,28,-99.99,,,-99.99,meteobridge,2014-08-29 04:38:00,
2014-08-28 21:39:00,76.5,39.9,30.10,North,352,2.0,4.0,27,-99.99,,,-99.99,meteobridge,2014-08-29 04:39:00,
2014-08-28 21:40:00,76.3,39.9,30.10,NW,326,4.9,8.1,27,-99.99,,,-99.99,meteobridge,2014-08-29 04:40:00,
2014-08-28 21:42:00,76.3,39.9,30.10,SSW,195,2.0,8.1,27,-99.99,,,-99.99,meteobridge,2014-08-29 04:42:00,
2014-08-28 21:43:00,76.3,40.8,30.10,ESE,120,4.0,8.1,28,-99.99,,,-99.99,meteobridge,2014-08-29 04:43:00,
2014-08-28 21:44:00,76.3,40.8,30.10,North,353,6.0,10.1,28,-99.99,,,-99.99,meteobridge,2014-08-29 04:44:00,
2014-08-28 21:45:00,76.3,40.8,30.10,North,0,4.9,10.1,28,-99.99,,,-99.99,meteobridge,2014-08-29 04:45:00,
2014-08-28 21:47:00,76.3,40.8,30.10,NW,325,2.9,8.1,28,-99.99,,,-99.99,meteobridge,2014-08-29 04:47:00,
2014-08-28 21:48:00,76.1,40.6,30.10,East,85,4.0,12.1,28,-99.99,,,-99.99,meteobridge,2014-08-29 04:48:00,
2014-08-28 21:50:00,76.1,40.6,30.10,SSW,202,4.9,6.9,28,-99.99,,,-99.99,meteobridge,2014-08-29 04:50:00,
2014-08-28 21:51:00,75.9,40.5,30.10,North,0,2.9,6.9,28,-99.99,,,-99.99,meteobridge,2014-08-29 04:51:00,
2014-08-28 21:52:00,76.1,40.6,30.10,SE,126,2.9,6.0,28,-99.99,,,-99.99,meteobridge,2014-08-29 04:52:00,
2014-08-28 21:53:00,76.1,40.6,30.10,South,188,4.9,6.9,28,-99.99,,,-99.99,meteobridge,2014-08-29 04:53:00,
2014-08-28 21:54:00,76.1,40.6,30.10,NW,325,2.9,10.1,28,-99.99,,,-99.99,meteobridge,2014-08-29 04:54:00,
2014-08-28 21:56:00,75.9,40.5,30.10,West,263,2.9,8.1,28,-99.99,,,-99.99,meteobridge,2014-08-29 04:56:00,
2014-08-28 21:57:00,75.9,40.5,30.10,North,349,6.0,6.9,28,-99.99,,,-99.99,meteobridge,2014-08-29 04:57:00,
2014-08-28 21:58:00,76.1,40.6,30.10,North,0,6.0,11.0,28,-99.99,,,-99.99,meteobridge,2014-08-29 04:58:00,
2014-08-28 21:59:00,76.1,39.7,30.10,NW,315,4.9,11.0,27,-99.99,,,-99.99,meteobridge,2014-08-29 04:59:00,
2014-08-28 22:00:00,76.1,40.6,30.10,SW,226,4.9,8.9,28,-99.99,,,-99.99,meteobridge,2014-08-29 05:00:00,
2014-08-28 22:01:00,76.1,40.6,30.10,WSW,247,2.0,8.9,28,-99.99,,,-99.99,meteobridge,2014-08-29 05:01:00,
2014-08-28 22:03:00,76.1,40.6,30.10,NNW,339,2.9,6.9,28,-99.99,,,-99.99,meteobridge,2014-08-29 05:03:00,
2014-08-28 22:04:00,75.9,39.6,30.10,North,0,2.9,12.1,27,-99.99,,,-99.99,meteobridge,2014-08-29 05:04:00,
2014-08-28 22:05:00,75.9,39.6,30.10,North,0,4.0,8.1,27,-99.99,,,-99.99,meteobridge,2014-08-29 05:05:00,
2014-08-28 22:06:00,75.7,39.4,30.10,North,354,2.9,6.0,27,-99.99,,,-99.99,meteobridge,2014-08-29 05:06:00,
2014-08-28 22:07:00,75.7,39.4,30.10,North,0,2.9,4.9,27,-99.99,,,-99.99,meteobridge,2014-08-29 05:07:00,
2014-08-28 22:08:00,75.7,40.3,30.10,North,0,2.9,8.1,28,-99.99,,,-99.99,meteobridge,2014-08-29 05:08:00,
2014-08-28 22:09:00,75.7,39.4,30.10,SW,217,4.9,8.1,27,-99.99,,,-99.99,meteobridge,2014-08-29 05:09:00,
2014-08-28 22:10:00,75.7,39.4,30.10,North,0,2.9,8.1,27,-99.99,,,-99.99,meteobridge,2014-08-29 05:10:00,
2014-08-28 22:11:00,75.9,39.6,30.10,North,0,0.9,6.9,27,-99.99,,,-99.99,meteobridge,2014-08-29 05:11:00,
2014-08-28 22:12:00,75.7,41.2,30.10,North,0,4.9,6.0,29,-99.99,,,-99.99,meteobridge,2014-08-29 05:12:00,
2014-08-28 22:13:00,75.7,41.2,30.10,North,0,2.9,6.0,29,-99.99,,,-99.99,meteobridge,2014-08-29 05:13:00,
2014-08-28 22:14:00,75.7,41.2,30.10,North,0,2.9,6.0,29,-99.99,,,-99.99,meteobridge,2014-08-29 05:14:00,
2014-08-28 22:15:00,75.7,41.2,30.10,North,0,4.9,6.0,29,-99.99,,,-99.99,meteobridge,2014-08-29 05:15:00,
2014-08-28 22:16:00,75.7,41.2,30.10,North,0,2.9,6.0,29,-99.99,,,-99.99,meteobridge,2014-08-29 05:16:00,
2014-08-28 22:17:00,75.7,41.2,30.10,North,0,2.9,6.9,29,-99.99,,,-99.99,meteobridge,2014-08-29 05:17:00,
2014-08-28 22:18:00,75.7,41.2,30.10,North,0,6.0,8.1,29,-99.99,,,-99.99,meteobridge,2014-08-29 05:18:00,
2014-08-28 22:19:00,75.7,41.2,30.10,South,184,2.0,8.1,29,-99.99,,,-99.99,meteobridge,2014-08-29 05:19:00,
2014-08-28 22:20:00,75.7,41.2,30.10,North,349,6.0,8.1,29,-99.99,,,-99.99,meteobridge,2014-08-29 05:20:00,
2014-08-28 22:21:00,75.7,42.1,30.10,NNW,336,4.9,8.1,30,-99.99,,,-99.99,meteobridge,2014-08-29 05:21:00,
2014-08-28 22:22:00,75.6,41.0,30.09,North,0,4.9,6.9,29,-99.99,,,-99.99,meteobridge,2014-08-29 05:22:00,
2014-08-28 22:24:00,75.6,41.0,30.09,NNW,332,2.9,10.1,29,-99.99,,,-99.99,meteobridge,2014-08-29 05:24:00,
2014-08-28 22:25:00,75.6,41.0,30.09,North,0,2.9,10.1,29,-99.99,,,-99.99,meteobridge,2014-08-29 05:25:00,
2014-08-28 22:26:00,75.4,41.0,30.09,North,0,6.0,8.1,29,-99.99,,,-99.99,meteobridge,2014-08-29 05:26:00,
2014-08-28 22:28:00,75.4,41.7,30.09,North,0,4.9,11.0,30,-99.99,,,-99.99,meteobridge,2014-08-29 05:28:00,